Wetterdaten: aktuell Dienstag, 20.04.2021 18:20
Datum Zeit Temp. I. Temp. 2m Temp. Lager Temp. Wr Temp. Cafe Feuchte I. Feuchte 2m LF Lager Feuchte Wr Feuchte Cafe Luftdruck Regen Wind Richtung Richtung Taupunkt Windchill Windben
20.04.2021 18:20 13,2 C 10,6 C 7,4 C 8,7 C 9,7 C 63 % 63 % 74 % 78 % 86 % 1017,2 hPa 0,0 l/m 7,4 km/h (2 Bft) W-SW 247 3,9 C 9,9 C 13,5 km/h (3 Bft)
20.04.2021 18:18 13,1 C 10,7 C 7,4 C 8,7 C 9,7 C 64 % 63 % 74 % 78 % 86 % 1017,2 hPa 0,0 l/m 7,7 km/h (2 Bft) W-SW 247 3,9 C 9,8 C 13,8 km/h (3 Bft)
20.04.2021 18:16 13,1 C 10,7 C 7,4 C 8,7 C 9,6 C 64 % 64 % 74 % 78 % 86 % 1017,2 hPa 0,0 l/m 7,6 km/h (2 Bft) SW 225 4,2 C 9,9 C 17,1 km/h (3 Bft)
20.04.2021 18:14 13,2 C 10,6 C 7,4 C 8,7 C 9,7 C 63 % 64 % 74 % 78 % 86 % 1017,2 hPa 0,0 l/m 7,2 km/h (2 Bft) W-SW 247 4,1 C 10,0 C 12,6 km/h (3 Bft)
20.04.2021 18:12 13,1 C 10,6 C 7,4 C 8,7 C 9,6 C 63 % 63 % 74 % 78 % 86 % 1017,2 hPa 0,0 l/m 7,2 km/h (2 Bft) W-SW 247 3,9 C 10,0 C 10,6 km/h (2 Bft)
20.04.2021 18:10 13,2 C 10,5 C 7,4 C 8,7 C 9,7 C 63 % 64 % 74 % 78 % 86 % 1017,2 hPa 0,0 l/m 7,1 km/h (2 Bft) SW 225 4,0 C 10,0 C 23,7 km/h (4 Bft)
20.04.2021 18:08 13,2 C 10,5 C 7,4 C 8,7 C 9,7 C 63 % 64 % 74 % 78 % 86 % 1017,2 hPa 0,0 l/m 6,4 km/h (2 Bft) W-SW 247 4,0 C 10,5 C 15,7 km/h (3 Bft)
20.04.2021 18:06 13,2 C 10,5 C 7,4 C 8,7 C 9,7 C 63 % 65 % 74 % 78 % 86 % 1017,2 hPa 0,0 l/m 6,3 km/h (2 Bft) W 270 4,2 C 10,5 C 7,7 km/h (2 Bft)
20.04.2021 18:04 13,2 C 10,3 C 7,4 C 8,7 C 9,7 C 63 % 65 % 74 % 78 % 86 % 1017,2 hPa 0,0 l/m 6,8 km/h (2 Bft) W 270 4,0 C 10,0 C 11,1 km/h (2 Bft)
20.04.2021 18:02 13,2 C 10,2 C 7,4 C 8,7 C 9,7 C 63 % 64 % 74 % 78 % 86 % 1017,2 hPa 0,0 l/m 6,9 km/h (2 Bft) SW 225 3,7 C 9,8 C 8,9 km/h (2 Bft)
20.04.2021 18:00 13,1 C 10,1 C 7,4 C 8,7 C 9,8 C 63 % 64 % 74 % 78 % 86 % 1017,0 hPa 0,0 l/m 7,6 km/h (2 Bft) SW 225 3,6 C 9,2 C 7,5 km/h (2 Bft)
20.04.2021 17:58 13,3 C 10,0 C 7,4 C 8,7 C 9,8 C 63 % 64 % 74 % 78 % 86 % 1017,0 hPa 0,0 l/m 8,0 km/h (2 Bft) SW 225 3,5 C 8,9 C 9,2 km/h (2 Bft)
20.04.2021 17:56 13,2 C 9,9 C 7,4 C 8,7 C 9,8 C 63 % 64 % 74 % 78 % 86 % 1017,0 hPa 0,0 l/m 8,5 km/h (2 Bft) W 270 3,4 C 8,4 C 20,0 km/h (4 Bft)
20.04.2021 17:54 13,4 C 9,9 C 7,4 C 8,7 C 9,9 C 63 % 64 % 74 % 78 % 86 % 1017,0 hPa 0,0 l/m 8,5 km/h (2 Bft) W-SW 247 3,4 C 8,4 C 10,9 km/h (2 Bft)
20.04.2021 17:52 13,4 C 9,9 C 7,4 C 8,7 C 9,9 C 63 % 64 % 74 % 78 % 86 % 1017,0 hPa 0,0 l/m 8,7 km/h (2 Bft) W 270 3,4 C 8,3 C 10,4 km/h (2 Bft)
20.04.2021 17:50 13,3 C 10,0 C 7,4 C 8,7 C 9,9 C 63 % 63 % 74 % 78 % 86 % 1017,0 hPa 0,0 l/m 8,7 km/h (2 Bft) W 270 3,3 C 8,4 C 14,7 km/h (3 Bft)
20.04.2021 17:48 13,5 C 10,1 C 7,4 C 8,7 C 9,8 C 64 % 63 % 74 % 78 % 86 % 1017,0 hPa 0,0 l/m 8,2 km/h (2 Bft) N-NW 337 3,4 C 8,8 C 20,8 km/h (4 Bft)
20.04.2021 17:46 13,5 C 10,2 C 7,4 C 8,7 C 9,8 C 64 % 63 % 74 % 78 % 86 % 1017,0 hPa 0,0 l/m 7,6 km/h (2 Bft) W-NW 292 3,5 C 9,3 C 26,1 km/h (4 Bft)
20.04.2021 17:44 13,4 C 10,2 C 7,4 C 8,7 C 9,9 C 64 % 63 % 74 % 78 % 86 % 1017,0 hPa 0,0 l/m 6,8 km/h (2 Bft) SW 225 3,5 C 9,9 C 15,2 km/h (3 Bft)
20.04.2021 17:42 13,6 C 10,4 C 7,4 C 8,7 C 9,9 C 64 % 63 % 74 % 78 % 86 % 1017,0 hPa 0,0 l/m 6,4 km/h (2 Bft) W 270 3,7 C 10,4 C 11,3 km/h (2 Bft)
20.04.2021 17:40 13,6 C 10,5 C 7,4 C 8,7 C 10,0 C 64 % 63 % 74 % 78 % 87 % 1017,0 hPa 0,0 l/m 6,0 km/h (2 Bft) W-SW 247 3,8 C 10,5 C 10,9 km/h (2 Bft)
20.04.2021 17:38 13,6 C 10,6 C 7,4 C 8,7 C 10,0 C 65 % 63 % 74 % 78 % 87 % 1017,0 hPa 0,0 l/m 5,8 km/h (2 Bft) W 270 3,9 C 10,6 C 10,1 km/h (2 Bft)
20.04.2021 17:36 13,6 C 10,7 C 7,4 C 8,7 C 10,0 C 65 % 62 % 74 % 78 % 87 % 1017,0 hPa 0,0 l/m 6,0 km/h (2 Bft) W-NW 292 3,7 C 10,7 C 9,7 km/h (2 Bft)
20.04.2021 17:34 13,6 C 10,8 C 7,4 C 8,7 C 10,0 C 65 % 62 % 74 % 78 % 87 % 1017,0 hPa 0,0 l/m 6,6 km/h (2 Bft) SW 225 3,8 C 10,7 C 8,7 km/h (2 Bft)
20.04.2021 17:32 13,6 C 10,9 C 7,4 C 8,7 C 10,0 C 66 % 62 % 74 % 78 % 87 % 1017,0 hPa 0,0 l/m 6,8 km/h (2 Bft) S-SW 202 3,9 C 10,6 C 11,3 km/h (2 Bft)
20.04.2021 17:30 13,6 C 11,1 C 7,4 C 8,7 C 10,0 C 66 % 62 % 74 % 78 % 87 % 1017,0 hPa 0,0 l/m 7,2 km/h (2 Bft) SW 225 4,1 C 10,5 C 10,1 km/h (2 Bft)
20.04.2021 17:28 13,6 C 11,3 C 7,4 C 8,7 C 10,0 C 66 % 61 % 74 % 78 % 87 % 1017,0 hPa 0,0 l/m 7,2 km/h (2 Bft) W-SW 247 4,1 C 10,8 C 11,3 km/h (2 Bft)
20.04.2021 17:26 13,6 C 11,5 C 7,4 C 8,7 C 10,0 C 67 % 61 % 74 % 78 % 87 % 1017,0 hPa 0,0 l/m 7,1 km/h (2 Bft) S-SO 157 4,2 C 11,0 C 10,6 km/h (2 Bft)
20.04.2021 17:24 13,6 C 11,7 C 7,4 C 8,7 C 10,0 C 67 % 61 % 74 % 78 % 87 % 1017,0 hPa 0,0 l/m 7,2 km/h (2 Bft) S 180 4,4 C 11,2 C 14,5 km/h (3 Bft)
20.04.2021 17:22 13,4 C 11,9 C 7,4 C 8,7 C 10,0 C 67 % 62 % 74 % 78 % 87 % 1017,0 hPa 0,0 l/m 6,9 km/h (2 Bft) S-SW 202 4,9 C 11,6 C 9,7 km/h (2 Bft)
20.04.2021 17:20 13,5 C 12,0 C 7,4 C 8,7 C 10,1 C 67 % 62 % 74 % 78 % 87 % 1016,9 hPa 0,0 l/m 7,1 km/h (2 Bft) SW 225 4,9 C 11,5 C 12,8 km/h (3 Bft)
20.04.2021 17:18 13,5 C 12,1 C 7,4 C 8,6 C 10,0 C 67 % 63 % 74 % 78 % 87 % 1016,9 hPa 0,0 l/m 7,2 km/h (2 Bft) SW 225 5,3 C 11,6 C 11,3 km/h (2 Bft)
20.04.2021 17:16 13,4 C 12,1 C 7,4 C 8,6 C 10,0 C 67 % 63 % 74 % 78 % 88 % 1016,9 hPa 0,0 l/m 6,9 km/h (2 Bft) SW 225 5,3 C 11,8 C 6,8 km/h (2 Bft)
20.04.2021 17:14 13,4 C 12,1 C 7,5 C 8,6 C 10,0 C 67 % 64 % 74 % 78 % 88 % 1016,9 hPa 0,0 l/m 6,8 km/h (2 Bft) W-SW 247 5,5 C 11,8 C 12,1 km/h (2 Bft)
20.04.2021 17:12 13,2 C 12,0 C 7,5 C 8,7 C 10,0 C 67 % 63 % 74 % 78 % 88 % 1016,9 hPa 0,0 l/m 6,6 km/h (2 Bft) W 270 5,2 C 11,9 C 15,2 km/h (3 Bft)
20.04.2021 17:10 13,2 C 12,1 C 7,4 C 8,7 C 10,0 C 67 % 64 % 74 % 78 % 88 % 1016,9 hPa 0,0 l/m 6,0 km/h (2 Bft) SW 225 5,5 C 12,1 C 15,4 km/h (3 Bft)
20.04.2021 17:08 13,3 C 12,2 C 7,4 C 8,7 C 10,0 C 68 % 65 % 74 % 78 % 88 % 1016,9 hPa 0,0 l/m 5,1 km/h (1 Bft) W 270 5,8 C 12,2 C 13,5 km/h (3 Bft)
20.04.2021 17:06 13,1 C 12,2 C 7,4 C 8,6 C 10,0 C 68 % 65 % 74 % 78 % 88 % 1016,9 hPa 0,0 l/m 5,1 km/h (1 Bft) W-SW 247 5,8 C 12,2 C 8,2 km/h (2 Bft)
20.04.2021 17:04 13,2 C 12,4 C 7,4 C 8,6 C 10,0 C 68 % 65 % 74 % 78 % 88 % 1016,9 hPa 0,0 l/m 5,5 km/h (1 Bft) SW 225 6,0 C 12,4 C 8,7 km/h (2 Bft)
20.04.2021 17:02 13,1 C 12,5 C 7,4 C 8,7 C 10,0 C 68 % 65 % 74 % 78 % 88 % 1016,9 hPa 0,0 l/m 5,5 km/h (1 Bft) S-SO 157 6,1 C 12,5 C 7,2 km/h (2 Bft)
20.04.2021 17:00 13,1 C 12,6 C 7,4 C 8,6 C 10,0 C 68 % 65 % 74 % 78 % 88 % 1016,2 hPa 0,0 l/m 6,1 km/h (2 Bft) S-SW 202 6,2 C 12,6 C 12,6 km/h (3 Bft)
20.04.2021 16:58 13,0 C 12,7 C 7,4 C 8,7 C 10,0 C 68 % 64 % 74 % 78 % 88 % 1016,2 hPa 0,0 l/m 6,0 km/h (2 Bft) N-NO 22 6,1 C 12,7 C 7,0 km/h (2 Bft)
20.04.2021 16:56 13,0 C 12,8 C 7,4 C 8,7 C 10,0 C 68 % 64 % 74 % 78 % 88 % 1016,2 hPa 0,0 l/m 6,4 km/h (2 Bft) W-SW 247 6,2 C 12,8 C 12,1 km/h (2 Bft)
20.04.2021 16:54 12,8 C 13,1 C 7,4 C 8,7 C 10,0 C 68 % 64 % 74 % 78 % 88 % 1016,2 hPa 0,0 l/m 6,3 km/h (2 Bft) W-SW 247 6,4 C 13,1 C 9,2 km/h (2 Bft)
20.04.2021 16:52 12,8 C 13,3 C 7,4 C 8,7 C 9,9 C 68 % 65 % 74 % 78 % 88 % 1016,2 hPa 0,0 l/m 6,3 km/h (2 Bft) S-SW 202 6,9 C 13,3 C 14,5 km/h (3 Bft)
20.04.2021 16:50 12,8 C 13,4 C 7,4 C 8,6 C 9,9 C 69 % 66 % 74 % 78 % 88 % 1016,2 hPa 0,0 l/m 5,8 km/h (2 Bft) S 180 7,2 C 13,4 C 11,6 km/h (2 Bft)
20.04.2021 16:48 12,8 C 13,3 C 7,4 C 8,7 C 9,9 C 69 % 66 % 74 % 78 % 88 % 1016,2 hPa 0,0 l/m 5,5 km/h (1 Bft) S 180 7,1 C 13,3 C 7,0 km/h (2 Bft)
20.04.2021 16:46 12,7 C 13,3 C 7,4 C 8,7 C 9,9 C 69 % 67 % 74 % 78 % 88 % 1016,2 hPa 0,0 l/m 5,3 km/h (1 Bft) S 180 7,3 C 13,3 C 16,7 km/h (3 Bft)
20.04.2021 16:44 12,6 C 13,2 C 7,4 C 8,7 C 9,9 C 69 % 67 % 74 % 78 % 88 % 1016,2 hPa 0,0 l/m 4,5 km/h (1 Bft) W-SW 247 7,2 C 13,2 C 10,1 km/h (2 Bft)
20.04.2021 16:42 12,6 C 13,2 C 7,4 C 8,7 C 9,9 C 69 % 67 % 74 % 78 % 88 % 1016,2 hPa 0,0 l/m 4,3 km/h (1 Bft) W 270 7,2 C 13,2 C 8,2 km/h (2 Bft)
20.04.2021 16:40 12,4 C 13,1 C 7,4 C 8,7 C 9,9 C 69 % 68 % 74 % 78 % 88 % 1015,8 hPa 0,0 l/m 4,5 km/h (1 Bft) S-SW 202 7,3 C 13,1 C 7,7 km/h (2 Bft)
20.04.2021 16:38 12,3 C 12,9 C 7,4 C 8,7 C 9,9 C 69 % 69 % 74 % 78 % 88 % 1015,8 hPa 0,0 l/m 4,7 km/h (1 Bft) SW 225 7,4 C 12,9 C 6,3 km/h (2 Bft)
20.04.2021 16:36 12,4 C 12,9 C 7,3 C 8,7 C 9,9 C 69 % 69 % 74 % 78 % 88 % 1015,8 hPa 0,0 l/m 5,0 km/h (1 Bft) S-SW 202 7,4 C 12,9 C 3,9 km/h (1 Bft)
20.04.2021 16:34 12,2 C 12,8 C 7,4 C 8,7 C 9,9 C 69 % 71 % 74 % 78 % 88 % 1015,8 hPa 0,0 l/m 4,7 km/h (1 Bft) S 180 7,7 C 12,8 C 6,0 km/h (2 Bft)
20.04.2021 16:32 12,1 C 12,6 C 7,4 C 8,7 C 9,9 C 69 % 70 % 74 % 78 % 88 % 1015,8 hPa 0,0 l/m 5,0 km/h (1 Bft) W-SW 247 7,3 C 12,6 C 10,9 km/h (2 Bft)
20.04.2021 16:30 12,2 C 12,6 C 7,3 C 8,7 C 9,9 C 69 % 70 % 74 % 78 % 88 % 1015,8 hPa 0,0 l/m 4,8 km/h (1 Bft) S-SW 202 7,3 C 12,6 C 13,5 km/h (3 Bft)
20.04.2021 16:28 12,1 C 12,6 C 7,4 C 8,7 C 9,9 C 69 % 72 % 74 % 78 % 88 % 1015,8 hPa 0,0 l/m 4,5 km/h (1 Bft) S-SO 157 7,7 C 12,6 C 6,0 km/h (2 Bft)
20.04.2021 16:26 11,9 C 12,5 C 7,4 C 8,7 C 9,9 C 69 % 73 % 74 % 78 % 88 % 1015,8 hPa 0,0 l/m 4,7 km/h (1 Bft) W 270 7,8 C 12,5 C 10,4 km/h (2 Bft)
20.04.2021 16:24 11,9 C 12,3 C 7,4 C 8,7 C 9,8 C 69 % 73 % 74 % 78 % 88 % 1015,8 hPa 0,0 l/m 4,8 km/h (1 Bft) SW 225 7,6 C 12,3 C 5,8 km/h (2 Bft)
20.04.2021 16:22 12,0 C 12,2 C 7,3 C 8,7 C 9,9 C 69 % 73 % 74 % 78 % 88 % 1015,8 hPa 0,0 l/m 4,8 km/h (1 Bft) S-SW 202 7,5 C 12,2 C 7,2 km/h (2 Bft)
20.04.2021 16:20 11,9 C 12,1 C 7,3 C 8,7 C 9,7 C 69 % 73 % 74 % 78 % 88 % 1015,4 hPa 0,0 l/m 4,7 km/h (1 Bft) S 180 7,4 C 12,1 C 7,0 km/h (2 Bft)
20.04.2021 16:18 11,8 C 12,0 C 7,3 C 8,7 C 9,7 C 69 % 73 % 74 % 78 % 88 % 1015,4 hPa 0,0 l/m 4,7 km/h (1 Bft) S 180 7,3 C 12,0 C 6,5 km/h (2 Bft)
20.04.2021 16:16 11,8 C 12,1 C 7,4 C 8,7 C 9,7 C 70 % 75 % 74 % 78 % 88 % 1015,4 hPa 0,0 l/m 4,3 km/h (1 Bft) S-SW 202 7,8 C 12,1 C 9,2 km/h (2 Bft)
20.04.2021 16:14 11,6 C 12,0 C 7,4 C 8,7 C 9,7 C 70 % 76 % 74 % 78 % 88 % 1015,4 hPa 0,0 l/m 4,2 km/h (1 Bft) S-SW 202 7,9 C 12,0 C 6,5 km/h (2 Bft)
20.04.2021 16:12 11,6 C 11,8 C 7,3 C 8,7 C 9,7 C 70 % 77 % 74 % 78 % 88 % 1015,4 hPa 0,0 l/m 4,5 km/h (1 Bft) S-SO 157 7,9 C 11,8 C 7,2 km/h (2 Bft)
20.04.2021 16:10 11,6 C 11,7 C 7,4 C 8,7 C 9,7 C 70 % 77 % 74 % 78 % 88 % 1015,4 hPa 0,0 l/m 4,8 km/h (1 Bft) S 180 7,8 C 11,7 C 8,2 km/h (2 Bft)
20.04.2021 16:08 11,6 C 11,4 C 7,3 C 8,7 C 9,7 C 70 % 77 % 74 % 78 % 88 % 1015,4 hPa 0,0 l/m 4,7 km/h (1 Bft) S 180 7,5 C 11,4 C 6,5 km/h (2 Bft)
20.04.2021 16:06 11,5 C 11,3 C 7,3 C 8,7 C 9,6 C 70 % 78 % 74 % 78 % 88 % 1015,4 hPa 0,1 l/m 4,3 km/h (1 Bft) S-SO 157 7,6 C 11,3 C 5,6 km/h (1 Bft)
20.04.2021 16:04 11,3 C 11,0 C 7,3 C 8,7 C 9,7 C 70 % 78 % 74 % 78 % 88 % 1015,4 hPa 0,0 l/m 4,0 km/h (1 Bft) S 180 7,3 C 11,0 C 6,5 km/h (2 Bft)
20.04.2021 16:02 11,4 C 10,8 C 7,4 C 8,7 C 9,5 C 70 % 78 % 74 % 78 % 88 % 1015,4 hPa 0,0 l/m 3,9 km/h (1 Bft) S-SW 202 7,1 C 10,8 C 11,3 km/h (2 Bft)
20.04.2021 16:00 11,4 C 10,7 C 7,3 C 8,7 C 9,5 C 70 % 79 % 74 % 78 % 88 % 1015,4 hPa 0,0 l/m 2,9 km/h (1 Bft) S 180 7,2 C 10,7 C 10,6 km/h (2 Bft)
20.04.2021 15:58 11,2 C 10,4 C 7,3 C 8,7 C 9,5 C 70 % 79 % 74 % 78 % 88 % 1015,4 hPa 0,0 l/m 2,4 km/h (1 Bft) S 180 6,9 C 10,4 C 7,0 km/h (2 Bft)
20.04.2021 15:56 11,2 C 9,9 C 7,3 C 8,6 C 9,5 C 70 % 79 % 74 % 78 % 88 % 1015,4 hPa 0,0 l/m 2,4 km/h (1 Bft) S-SW 202 6,4 C 9,9 C 4,1 km/h (1 Bft)
20.04.2021 15:54 11,3 C 9,4 C 7,3 C 8,7 C 9,5 C 70 % 78 % 74 % 78 % 88 % 1015,4 hPa 0,0 l/m 2,7 km/h (1 Bft) S-SO 157 5,8 C 9,4 C 7,0 km/h (2 Bft)
20.04.2021 15:52 11,1 C 9,0 C 7,3 C 8,7 C 9,5 C 70 % 77 % 74 % 78 % 88 % 1015,4 hPa 0,0 l/m 3,1 km/h (1 Bft) S 180 5,2 C 9,0 C 2,7 km/h (1 Bft)
20.04.2021 15:50 11,1 C 8,8 C 7,3 C 8,7 C 9,5 C 69 % 77 % 74 % 78 % 88 % 1015,4 hPa 0,0 l/m 3,2 km/h (1 Bft) S 180 5,0 C 8,8 C 3,6 km/h (1 Bft)
20.04.2021 15:48 11,1 C 8,7 C 7,3 C 8,7 C 9,3 C 69 % 77 % 74 % 78 % 88 % 1015,4 hPa 0,1 l/m 3,9 km/h (1 Bft) S-SW 202 4,9 C 8,7 C 4,1 km/h (1 Bft)
20.04.2021 15:46 11,1 C 8,6 C 7,3 C 8,7 C 9,2 C 69 % 77 % 74 % 78 % 88 % 1015,4 hPa 0,1 l/m 4,2 km/h (1 Bft) S 180 4,8 C 8,6 C 4,6 km/h (1 Bft)
20.04.2021 15:44 11,1 C 8,5 C 7,2 C 8,7 C 9,2 C 69 % 77 % 74 % 78 % 88 % 1015,4 hPa 0,0 l/m 4,2 km/h (1 Bft) SW 225 4,7 C 8,5 C 9,7 km/h (2 Bft)
20.04.2021 15:42 11,3 C 8,3 C 7,3 C 8,7 C 9,2 C 69 % 77 % 74 % 78 % 88 % 1015,4 hPa 0,3 l/m 4,0 km/h (1 Bft) S-SO 157 4,5 C 8,3 C 7,5 km/h (2 Bft)
20.04.2021 15:40 11,3 C 8,3 C 7,3 C 8,7 C 9,2 C 69 % 77 % 74 % 78 % 88 % 1016,1 hPa 0,0 l/m 4,2 km/h (1 Bft) S 180 4,5 C 8,3 C 5,6 km/h (1 Bft)
20.04.2021 15:38 11,2 C 8,2 C 7,2 C 8,7 C 9,2 C 68 % 77 % 74 % 78 % 88 % 1016,1 hPa 0,0 l/m 4,8 km/h (1 Bft) S 180 4,4 C 8,2 C 9,2 km/h (2 Bft)
20.04.2021 15:36 11,4 C 8,1 C 7,3 C 8,7 C 9,1 C 68 % 76 % 74 % 78 % 88 % 1016,1 hPa 0,3 l/m 4,8 km/h (1 Bft) SW 225 4,1 C 8,1 C 11,8 km/h (2 Bft)
20.04.2021 15:34 11,4 C 8,1 C 7,2 C 8,7 C 9,1 C 68 % 76 % 74 % 78 % 88 % 1016,1 hPa 0,0 l/m 5,1 km/h (1 Bft) S 180 4,1 C 8,1 C 4,3 km/h (1 Bft)
20.04.2021 15:32 11,5 C 8,1 C 7,3 C 8,7 C 9,1 C 67 % 75 % 74 % 78 % 88 % 1016,1 hPa 0,0 l/m 5,6 km/h (1 Bft) S-SW 202 3,9 C 8,1 C 12,6 km/h (3 Bft)
20.04.2021 15:30 11,5 C 7,9 C 7,2 C 8,7 C 9,1 C 67 % 75 % 74 % 78 % 88 % 1016,1 hPa 0,1 l/m 5,6 km/h (1 Bft) S-SW 202 3,7 C 7,9 C 9,9 km/h (2 Bft)
20.04.2021 15:28 11,6 C 7,9 C 7,2 C 8,6 C 9,0 C 67 % 75 % 74 % 78 % 88 % 1016,1 hPa 0,0 l/m 5,5 km/h (1 Bft) S 180 3,7 C 7,9 C 8,2 km/h (2 Bft)
20.04.2021 15:26 11,6 C 7,8 C 7,2 C 8,7 C 9,0 C 67 % 75 % 74 % 78 % 88 % 1016,1 hPa 0,2 l/m 5,0 km/h (1 Bft) S-SO 157 3,7 C 7,8 C 9,4 km/h (2 Bft)
20.04.2021 15:24 11,7 C 7,7 C 7,2 C 8,5 C 8,9 C 67 % 76 % 74 % 78 % 88 % 1016,1 hPa 0,2 l/m 5,0 km/h (1 Bft) SW 225 3,7 C 7,7 C 12,3 km/h (3 Bft)
20.04.2021 15:22 11,8 C 7,7 C 7,2 C 8,5 C 8,9 C 67 % 75 % 74 % 78 % 88 % 1016,1 hPa 0,0 l/m 6,0 km/h (2 Bft) S-SO 157 3,6 C 7,7 C 9,7 km/h (2 Bft)
20.04.2021 15:20 11,8 C 7,7 C 7,2 C 8,5 C 8,8 C 66 % 75 % 74 % 78 % 88 % 1017,2 hPa 0,3 l/m 7,4 km/h (2 Bft) W-SW 247 3,6 C 6,9 C 5,1 km/h (1 Bft)
20.04.2021 15:18 11,8 C 7,7 C 7,2 C 8,5 C 8,8 C 66 % 75 % 74 % 78 % 88 % 1017,2 hPa 0,0 l/m 9,8 km/h (2 Bft) S 180 3,6 C 5,2 C 8,9 km/h (2 Bft)
20.04.2021 15:16 12,0 C 7,7 C 7,2 C 8,5 C 8,7 C 66 % 75 % 74 % 78 % 88 % 1017,2 hPa 0,0 l/m 13,2 km/h (3 Bft) SW 225 3,6 C 3,2 C 6,0 km/h (2 Bft)
20.04.2021 15:14 11,9 C 7,8 C 7,2 C 8,5 C 8,8 C 65 % 75 % 74 % 78 % 88 % 1017,2 hPa 0,2 l/m 14,6 km/h (3 Bft) W-NW 292 3,7 C 2,7 C 36,5 km/h (5 Bft)
20.04.2021 15:12 12,1 C 7,9 C 7,3 C 8,5 C 8,9 C 65 % 74 % 74 % 78 % 88 % 1017,2 hPa 0,1 l/m 15,1 km/h (3 Bft) W-NW 292 3,6 C 2,5 C 13,5 km/h (3 Bft)
20.04.2021 15:10 12,2 C 8,1 C 7,2 C 8,5 C 8,8 C 65 % 73 % 74 % 78 % 88 % 1017,2 hPa 0,0 l/m 15,1 km/h (3 Bft) W 270 3,6 C 2,8 C 18,3 km/h (3 Bft)
20.04.2021 15:08 12,1 C 8,3 C 7,3 C 8,5 C 8,9 C 65 % 71 % 74 % 78 % 88 % 1017,2 hPa 0,1 l/m 14,8 km/h (3 Bft) W-NW 292 3,4 C 3,2 C 36,5 km/h (5 Bft)
20.04.2021 15:06 12,3 C 8,5 C 7,2 C 8,5 C 8,9 C 65 % 69 % 74 % 78 % 88 % 1017,2 hPa 0,0 l/m 12,6 km/h (3 Bft) W 270 3,1 C 4,5 C 32,6 km/h (5 Bft)
20.04.2021 15:04 12,2 C 8,6 C 7,3 C 8,5 C 8,9 C 65 % 68 % 74 % 78 % 88 % 1017,2 hPa 0,0 l/m 10,5 km/h (2 Bft) W 270 3,0 C 5,7 C 17,1 km/h (3 Bft)
20.04.2021 15:02 12,4 C 8,6 C 7,2 C 8,5 C 8,9 C 65 % 70 % 74 % 78 % 88 % 1017,2 hPa 0,0 l/m 10,3 km/h (2 Bft) W 270 3,4 C 5,9 C 13,8 km/h (3 Bft)
20.04.2021 15:00 12,3 C 8,6 C 7,3 C 8,5 C 8,9 C 66 % 72 % 74 % 78 % 88 % 1017,2 hPa 0,0 l/m 9,3 km/h (2 Bft) W-NW 292 3,8 C 6,5 C 18,1 km/h (3 Bft)
20.04.2021 14:58 12,5 C 8,7 C 7,2 C 8,5 C 8,9 C 66 % 75 % 74 % 78 % 88 % 1017,2 hPa 0,0 l/m 8,4 km/h (2 Bft) W 270 4,5 C 7,2 C 24,1 km/h (4 Bft)
20.04.2021 14:56 12,4 C 8,8 C 7,3 C 8,5 C 8,9 C 66 % 74 % 74 % 78 % 88 % 1017,2 hPa 0,0 l/m 7,6 km/h (2 Bft) N-NW 337 4,4 C 7,9 C 14,0 km/h (3 Bft)
20.04.2021 14:54 12,6 C 8,9 C 7,2 C 8,5 C 8,9 C 65 % 73 % 74 % 78 % 88 % 1017,2 hPa 0,0 l/m 6,9 km/h (2 Bft) N-NW 337 4,3 C 8,5 C 15,0 km/h (3 Bft)
20.04.2021 14:52 12,6 C 9,0 C 7,2 C 8,5 C 8,9 C 65 % 72 % 74 % 78 % 88 % 1017,2 hPa 0,0 l/m 6,4 km/h (2 Bft) NW 315 4,2 C 9,0 C 13,0 km/h (3 Bft)
20.04.2021 14:50 12,7 C 9,0 C 7,3 C 8,5 C 8,9 C 65 % 70 % 74 % 78 % 88 % 1017,2 hPa 0,0 l/m 6,1 km/h (2 Bft) NW 315 3,8 C 9,0 C 12,1 km/h (2 Bft)
20.04.2021 14:48 12,6 C 9,2 C 7,3 C 8,5 C 8,9 C 65 % 71 % 74 % 78 % 88 % 1017,2 hPa 0,0 l/m 5,8 km/h (2 Bft) NW 315 4,2 C 9,2 C 11,1 km/h (2 Bft)
20.04.2021 14:46 12,8 C 9,2 C 7,3 C 8,5 C 8,9 C 65 % 71 % 74 % 78 % 88 % 1017,2 hPa 0,0 l/m 6,0 km/h (2 Bft) NW 315 4,2 C 9,2 C 10,9 km/h (2 Bft)
20.04.2021 14:44 12,8 C 9,3 C 7,2 C 8,5 C 8,9 C 65 % 72 % 74 % 78 % 89 % 1017,2 hPa 0,0 l/m 5,8 km/h (2 Bft) N-NW 337 4,5 C 9,3 C 8,4 km/h (2 Bft)
20.04.2021 14:42 12,8 C 9,3 C 7,2 C 8,5 C 8,9 C 65 % 72 % 74 % 78 % 89 % 1017,2 hPa 0,0 l/m 6,1 km/h (2 Bft) N-NW 337 4,5 C 9,3 C 8,2 km/h (2 Bft)
20.04.2021 14:40 12,8 C 9,4 C 7,3 C 8,5 C 8,9 C 65 % 74 % 74 % 78 % 89 % 1017,5 hPa 0,0 l/m 6,4 km/h (2 Bft) N 360 5,0 C 9,4 C 10,9 km/h (2 Bft)
20.04.2021 14:38 12,8 C 9,6 C 7,3 C 8,5 C 8,9 C 65 % 75 % 74 % 78 % 89 % 1017,5 hPa 0,0 l/m 6,8 km/h (2 Bft) N-NO 22 5,4 C 9,3 C 9,9 km/h (2 Bft)
20.04.2021 14:36 12,8 C 9,6 C 7,3 C 8,5 C 8,9 C 65 % 75 % 74 % 78 % 89 % 1017,5 hPa 0,0 l/m 7,2 km/h (2 Bft) N-NO 22 5,4 C 9,0 C 12,6 km/h (3 Bft)
20.04.2021 14:34 12,9 C 9,5 C 7,3 C 8,5 C 8,9 C 65 % 74 % 74 % 78 % 89 % 1017,5 hPa 0,0 l/m 7,7 km/h (2 Bft) NO 45 5,1 C 8,5 C 12,3 km/h (3 Bft)
20.04.2021 14:32 12,8 C 9,3 C 7,3 C 8,5 C 8,9 C 65 % 74 % 74 % 78 % 89 % 1017,5 hPa 0,1 l/m 8,7 km/h (2 Bft) NO 45 4,9 C 7,6 C 10,6 km/h (2 Bft)
20.04.2021 14:30 12,8 C 9,1 C 7,3 C 8,5 C 8,9 C 65 % 74 % 74 % 78 % 89 % 1017,5 hPa 0,0 l/m 9,3 km/h (2 Bft) NO 45 4,7 C 7,0 C 15,2 km/h (3 Bft)
20.04.2021 14:28 13,0 C 9,1 C 7,2 C 8,5 C 8,9 C 65 % 74 % 74 % 78 % 89 % 1017,5 hPa 0,0 l/m 9,8 km/h (2 Bft) O-NO 67 4,7 C 6,7 C 11,3 km/h (2 Bft)
20.04.2021 14:26 13,0 C 9,0 C 7,3 C 8,5 C 8,9 C 65 % 74 % 74 % 78 % 89 % 1017,5 hPa 0,0 l/m 10,1 km/h (2 Bft) NO 45 4,6 C 6,4 C 13,8 km/h (3 Bft)
20.04.2021 14:24 13,0 C 9,0 C 7,3 C 8,5 C 8,9 C 65 % 74 % 74 % 78 % 89 % 1017,5 hPa 0,0 l/m 10,5 km/h (2 Bft) O-NO 67 4,6 C 6,2 C 15,0 km/h (3 Bft)
20.04.2021 14:22 13,1 C 9,0 C 7,2 C 8,5 C 8,9 C 65 % 73 % 74 % 78 % 89 % 1017,5 hPa 0,1 l/m 10,8 km/h (2 Bft) O-NO 67 4,4 C 6,0 C 18,8 km/h (3 Bft)
20.04.2021 14:20 13,1 C 9,0 C 7,2 C 8,5 C 8,8 C 65 % 73 % 74 % 78 % 89 % 1017,9 hPa 0,1 l/m 10,6 km/h (2 Bft) NO 45 4,4 C 6,1 C 16,7 km/h (3 Bft)
20.04.2021 14:18 13,1 C 9,1 C 7,3 C 8,5 C 8,8 C 65 % 73 % 74 % 78 % 89 % 1017,9 hPa 0,0 l/m 10,6 km/h (2 Bft) N-NO 22 4,5 C 6,2 C 16,4 km/h (3 Bft)
20.04.2021 14:16 13,2 C 9,2 C 7,2 C 8,5 C 8,8 C 65 % 72 % 74 % 78 % 89 % 1017,9 hPa 0,2 l/m 10,3 km/h (2 Bft) NO 45 4,4 C 6,5 C 17,1 km/h (3 Bft)
20.04.2021 14:14 13,2 C 9,2 C 7,2 C 8,5 C 8,8 C 65 % 71 % 74 % 78 % 89 % 1017,9 hPa 0,0 l/m 9,7 km/h (2 Bft) NO 45 4,2 C 6,9 C 16,9 km/h (3 Bft)
20.04.2021 14:12 13,2 C 9,6 C 7,2 C 8,5 C 8,8 C 65 % 70 % 74 % 78 % 89 % 1017,9 hPa 0,0 l/m 9,5 km/h (2 Bft) N 360 4,4 C 7,5 C 18,1 km/h (3 Bft)
20.04.2021 14:10 13,2 C 9,7 C 7,2 C 8,5 C 8,8 C 65 % 69 % 74 % 78 % 89 % 1017,9 hPa 0,0 l/m 8,5 km/h (2 Bft) N-NO 22 4,3 C 8,2 C 20,0 km/h (4 Bft)
20.04.2021 14:08 13,1 C 9,9 C 7,3 C 8,5 C 8,9 C 65 % 67 % 74 % 78 % 89 % 1017,9 hPa 0,0 l/m 8,0 km/h (2 Bft) NO 45 4,1 C 8,7 C 15,2 km/h (3 Bft)
20.04.2021 14:06 13,1 C 10,2 C 7,2 C 8,5 C 8,8 C 65 % 67 % 74 % 78 % 89 % 1017,9 hPa 0,0 l/m 7,7 km/h (2 Bft) N-NO 22 4,4 C 9,3 C 14,7 km/h (3 Bft)
20.04.2021 14:04 13,1 C 10,4 C 7,2 C 8,5 C 8,8 C 65 % 67 % 74 % 78 % 89 % 1017,9 hPa 0,0 l/m 7,6 km/h (2 Bft) N-NO 22 4,5 C 9,5 C 14,0 km/h (3 Bft)
20.04.2021 14:02 13,1 C 10,8 C 7,2 C 8,5 C 8,8 C 66 % 67 % 74 % 78 % 89 % 1017,9 hPa 0,0 l/m 6,4 km/h (2 Bft) N-NW 337 4,9 C 10,8 C 16,2 km/h (3 Bft)
20.04.2021 14:00 13,1 C 11,1 C 7,2 C 8,5 C 8,8 C 66 % 67 % 74 % 78 % 89 % 1017,6 hPa 0,0 l/m 5,6 km/h (1 Bft) N-NO 22 5,2 C 11,1 C 10,1 km/h (2 Bft)
20.04.2021 13:58 13,1 C 11,4 C 7,2 C 8,5 C 8,8 C 66 % 67 % 74 % 78 % 89 % 1017,6 hPa 0,0 l/m 5,3 km/h (1 Bft) N-NW 337 5,5 C 11,4 C 13,8 km/h (3 Bft)
20.04.2021 13:56 13,2 C 11,6 C 7,2 C 8,5 C 8,8 C 66 % 67 % 74 % 78 % 89 % 1017,6 hPa 0,0 l/m 5,1 km/h (1 Bft) NW 315 5,7 C 11,6 C 13,8 km/h (3 Bft)
20.04.2021 13:54 13,2 C 11,6 C 7,3 C 8,5 C 8,8 C 66 % 67 % 74 % 78 % 89 % 1017,6 hPa 0,0 l/m 4,8 km/h (1 Bft) N-NW 337 5,7 C 11,6 C 15,7 km/h (3 Bft)
20.04.2021 13:52 13,2 C 11,6 C 7,2 C 8,5 C 8,8 C 66 % 67 % 74 % 78 % 89 % 1017,6 hPa 0,0 l/m 5,5 km/h (1 Bft) SW 225 5,7 C 11,6 C 2,9 km/h (1 Bft)
20.04.2021 13:50 13,2 C 11,5 C 7,2 C 8,5 C 8,8 C 66 % 66 % 74 % 78 % 89 % 1017,6 hPa 0,0 l/m 6,1 km/h (2 Bft) W 270 5,4 C 11,5 C 8,7 km/h (2 Bft)
20.04.2021 13:48 13,2 C 11,5 C 7,2 C 8,5 C 8,7 C 66 % 66 % 74 % 78 % 89 % 1017,6 hPa 0,0 l/m 6,9 km/h (2 Bft) W-SW 247 5,4 C 11,2 C 8,7 km/h (2 Bft)
20.04.2021 13:46 13,2 C 11,5 C 7,2 C 8,5 C 8,7 C 66 % 66 % 74 % 78 % 89 % 1017,6 hPa 0,0 l/m 7,4 km/h (2 Bft) W-SW 247 5,4 C 10,8 C 7,2 km/h (2 Bft)
20.04.2021 13:44 13,2 C 11,6 C 7,2 C 8,5 C 8,7 C 66 % 65 % 74 % 78 % 89 % 1017,6 hPa 0,0 l/m 7,6 km/h (2 Bft) W-NW 292 5,2 C 10,8 C 16,4 km/h (3 Bft)
20.04.2021 13:42 13,2 C 11,6 C 7,2 C 8,5 C 8,7 C 66 % 65 % 74 % 78 % 89 % 1017,6 hPa 0,0 l/m 7,1 km/h (2 Bft) SW 225 5,2 C 11,1 C 20,8 km/h (4 Bft)
20.04.2021 13:40 13,1 C 11,7 C 7,2 C 8,5 C 8,7 C 66 % 64 % 74 % 78 % 89 % 1017,3 hPa 0,0 l/m 6,9 km/h (2 Bft) SW 225 5,1 C 11,4 C 12,8 km/h (3 Bft)
20.04.2021 13:38 13,1 C 11,9 C 7,2 C 8,5 C 8,7 C 66 % 64 % 74 % 78 % 89 % 1017,3 hPa 0,0 l/m 6,8 km/h (2 Bft) W 270 5,3 C 11,6 C 21,5 km/h (4 Bft)
20.04.2021 13:36 12,9 C 12,1 C 7,2 C 8,5 C 8,7 C 66 % 65 % 74 % 78 % 89 % 1017,3 hPa 0,0 l/m 6,3 km/h (2 Bft) W 270 5,7 C 12,1 C 15,0 km/h (3 Bft)
20.04.2021 13:34 13,0 C 12,2 C 7,2 C 8,4 C 8,7 C 66 % 65 % 74 % 78 % 89 % 1017,3 hPa 0,0 l/m 6,6 km/h (2 Bft) SW 225 5,8 C 12,1 C 9,4 km/h (2 Bft)
20.04.2021 13:32 13,0 C 12,2 C 7,2 C 8,4 C 8,7 C 66 % 65 % 74 % 78 % 89 % 1017,3 hPa 0,0 l/m 6,8 km/h (2 Bft) SW 225 5,8 C 11,9 C 9,4 km/h (2 Bft)
20.04.2021 13:30 13,0 C 12,3 C 7,2 C 8,4 C 8,6 C 66 % 65 % 74 % 78 % 89 % 1017,3 hPa 0,0 l/m 7,6 km/h (2 Bft) S-SW 202 5,9 C 11,5 C 14,5 km/h (3 Bft)
20.04.2021 13:28 12,8 C 12,5 C 7,2 C 8,4 C 8,6 C 66 % 65 % 74 % 78 % 89 % 1017,3 hPa 0,0 l/m 8,2 km/h (2 Bft) S-SO 157 6,1 C 11,4 C 11,6 km/h (2 Bft)
20.04.2021 13:26 12,9 C 12,5 C 7,2 C 8,4 C 8,7 C 66 % 65 % 74 % 78 % 89 % 1017,3 hPa 0,0 l/m 8,4 km/h (2 Bft) S 180 6,1 C 11,2 C 10,6 km/h (2 Bft)
20.04.2021 13:24 12,8 C 12,3 C 7,2 C 8,4 C 8,7 C 67 % 65 % 74 % 78 % 89 % 1017,3 hPa 0,0 l/m 8,4 km/h (2 Bft) S-SO 157 5,9 C 11,0 C 16,2 km/h (3 Bft)
20.04.2021 13:22 12,8 C 12,3 C 7,2 C 8,4 C 8,6 C 67 % 65 % 74 % 78 % 89 % 1017,3 hPa 0,0 l/m 8,5 km/h (2 Bft) S-SW 202 5,9 C 11,0 C 11,6 km/h (2 Bft)
20.04.2021 13:20 12,8 C 12,4 C 7,1 C 8,4 C 8,6 C 67 % 65 % 74 % 78 % 89 % 1017,0 hPa 0,0 l/m 8,4 km/h (2 Bft) S 180 6,0 C 11,1 C 14,5 km/h (3 Bft)
20.04.2021 13:18 12,8 C 12,4 C 7,2 C 8,4 C 8,5 C 67 % 65 % 74 % 78 % 89 % 1017,0 hPa 0,0 l/m 8,0 km/h (2 Bft) N-NO 22 6,0 C 11,4 C 20,0 km/h (4 Bft)
20.04.2021 13:16 12,7 C 12,6 C 7,2 C 8,4 C 8,5 C 67 % 66 % 74 % 78 % 89 % 1017,0 hPa 0,0 l/m 7,4 km/h (2 Bft) W-SW 247 6,4 C 12,0 C 15,9 km/h (3 Bft)
20.04.2021 13:14 12,7 C 12,7 C 7,1 C 8,4 C 8,4 C 67 % 66 % 74 % 78 % 89 % 1017,0 hPa 0,0 l/m 7,7 km/h (2 Bft) W 270 6,5 C 11,9 C 7,2 km/h (2 Bft)
20.04.2021 13:12 12,6 C 12,8 C 7,2 C 8,4 C 8,4 C 67 % 67 % 74 % 78 % 89 % 1017,0 hPa 0,0 l/m 7,9 km/h (2 Bft) S 180 6,8 C 11,9 C 24,9 km/h (4 Bft)
20.04.2021 13:10 12,6 C 12,6 C 7,1 C 8,4 C 8,5 C 67 % 67 % 74 % 78 % 89 % 1017,0 hPa 0,0 l/m 8,2 km/h (2 Bft) S-SW 202 6,6 C 11,5 C 12,6 km/h (3 Bft)
20.04.2021 13:08 12,4 C 12,3 C 7,1 C 8,4 C 8,4 C 67 % 69 % 74 % 78 % 89 % 1017,0 hPa 0,0 l/m 8,7 km/h (2 Bft) S 180 6,8 C 10,8 C 12,8 km/h (3 Bft)
20.04.2021 13:06 12,5 C 11,9 C 7,1 C 8,4 C 8,4 C 67 % 67 % 74 % 78 % 89 % 1017,0 hPa 0,0 l/m 9,0 km/h (2 Bft) SW 225 6,0 C 10,2 C 9,7 km/h (2 Bft)
20.04.2021 13:04 12,3 C 11,7 C 7,1 C 8,4 C 8,3 C 67 % 67 % 74 % 78 % 88 % 1017,0 hPa 0,0 l/m 9,3 km/h (2 Bft) SW 225 5,8 C 9,9 C 26,8 km/h (4 Bft)
20.04.2021 13:02 12,4 C 11,6 C 7,2 C 8,4 C 8,3 C 68 % 67 % 74 % 78 % 88 % 1017,0 hPa 0,0 l/m 9,3 km/h (2 Bft) S-SW 202 5,7 C 9,8 C 16,4 km/h (3 Bft)
20.04.2021 13:00 12,4 C 11,6 C 7,1 C 8,4 C 8,3 C 68 % 67 % 74 % 78 % 88 % 1016,9 hPa 0,0 l/m 9,2 km/h (2 Bft) W 270 5,7 C 9,8 C 17,4 km/h (3 Bft)
20.04.2021 12:58 12,2 C 11,9 C 7,1 C 8,4 C 8,3 C 68 % 67 % 74 % 78 % 88 % 1016,9 hPa 0,0 l/m 9,3 km/h (2 Bft) W-SW 247 6,0 C 10,1 C 26,8 km/h (4 Bft)
20.04.2021 12:56 12,3 C 12,1 C 7,2 C 8,4 C 8,3 C 68 % 67 % 74 % 78 % 88 % 1016,9 hPa 0,0 l/m 9,2 km/h (2 Bft) W 270 6,2 C 10,3 C 12,3 km/h (3 Bft)
20.04.2021 12:54 12,2 C 12,3 C 7,1 C 8,5 C 8,3 C 68 % 70 % 74 % 78 % 88 % 1016,9 hPa 0,0 l/m 8,7 km/h (2 Bft) SW 225 7,0 C 10,8 C 25,6 km/h (4 Bft)
20.04.2021 12:52 12,2 C 12,1 C 7,1 C 8,4 C 8,3 C 68 % 71 % 74 % 78 % 88 % 1016,9 hPa 0,0 l/m 8,7 km/h (2 Bft) W-SW 247 7,0 C 10,6 C 11,8 km/h (2 Bft)
20.04.2021 12:50 12,2 C 12,0 C 7,1 C 8,4 C 8,2 C 68 % 72 % 74 % 78 % 88 % 1016,9 hPa 0,0 l/m 8,5 km/h (2 Bft) W 270 7,1 C 10,6 C 15,7 km/h (3 Bft)
20.04.2021 12:48 12,1 C 11,9 C 7,1 C 8,4 C 8,1 C 68 % 71 % 74 % 78 % 88 % 1016,9 hPa 0,0 l/m 9,0 km/h (2 Bft) W 270 6,8 C 10,2 C 23,2 km/h (4 Bft)
20.04.2021 12:46 11,9 C 11,8 C 7,1 C 8,4 C 8,1 C 68 % 72 % 74 % 78 % 88 % 1016,9 hPa 0,0 l/m 9,2 km/h (2 Bft) S 180 6,9 C 10,0 C 16,9 km/h (3 Bft)
20.04.2021 12:44 12,0 C 11,6 C 7,1 C 8,4 C 8,1 C 68 % 73 % 74 % 78 % 88 % 1016,9 hPa 0,0 l/m 8,9 km/h (2 Bft) W 270 6,9 C 10,0 C 22,4 km/h (4 Bft)
20.04.2021 12:42 12,0 C 11,6 C 7,1 C 8,4 C 8,1 C 68 % 74 % 74 % 78 % 88 % 1016,9 hPa 0,0 l/m 8,4 km/h (2 Bft) W-SW 247 7,1 C 10,3 C 10,6 km/h (2 Bft)
20.04.2021 12:40 11,8 C 11,4 C 7,1 C 8,5 C 8,0 C 68 % 74 % 74 % 78 % 88 % 1016,5 hPa 0,0 l/m 8,4 km/h (2 Bft) W-SW 247 6,9 C 10,1 C 15,9 km/h (3 Bft)
20.04.2021 12:38 11,9 C 11,3 C 7,1 C 8,4 C 8,0 C 68 % 74 % 74 % 78 % 88 % 1016,5 hPa 0,0 l/m 8,4 km/h (2 Bft) W-SW 247 6,8 C 10,0 C 17,4 km/h (3 Bft)
20.04.2021 12:36 11,8 C 11,2 C 7,1 C 8,5 C 8,1 C 68 % 76 % 74 % 78 % 88 % 1016,5 hPa 0,0 l/m 7,9 km/h (2 Bft) S-SW 202 7,1 C 10,2 C 19,8 km/h (3 Bft)
20.04.2021 12:34 11,8 C 11,0 C 7,1 C 8,4 C 8,0 C 68 % 76 % 74 % 78 % 88 % 1016,5 hPa 0,0 l/m 7,7 km/h (2 Bft) SW 225 6,9 C 10,1 C 21,5 km/h (4 Bft)
20.04.2021 12:32 11,8 C 11,0 C 7,1 C 8,5 C 8,0 C 68 % 76 % 74 % 78 % 88 % 1016,5 hPa 0,0 l/m 7,6 km/h (2 Bft) S-SW 202 6,9 C 10,2 C 9,2 km/h (2 Bft)
20.04.2021 12:30 11,7 C 11,1 C 7,1 C 8,5 C 8,0 C 68 % 77 % 74 % 78 % 88 % 1016,5 hPa 0,0 l/m 7,9 km/h (2 Bft) S-SW 202 7,2 C 10,1 C 13,8 km/h (3 Bft)
20.04.2021 12:28 11,6 C 11,1 C 7,1 C 8,4 C 8,0 C 68 % 77 % 74 % 78 % 88 % 1016,5 hPa 0,0 l/m 7,9 km/h (2 Bft) W-SW 247 7,2 C 10,1 C 18,1 km/h (3 Bft)
20.04.2021 12:26 11,6 C 11,2 C 7,1 C 8,5 C 7,9 C 68 % 79 % 74 % 78 % 88 % 1016,5 hPa 0,0 l/m 7,7 km/h (2 Bft) S-SW 202 7,7 C 10,3 C 11,8 km/h (2 Bft)
20.04.2021 12:24 11,6 C 11,1 C 7,1 C 8,5 C 7,9 C 69 % 81 % 74 % 78 % 88 % 1016,5 hPa 0,0 l/m 7,4 km/h (2 Bft) S 180 8,0 C 10,4 C 21,2 km/h (4 Bft)
20.04.2021 12:22 11,6 C 10,9 C 7,1 C 8,5 C 7,9 C 69 % 81 % 74 % 78 % 88 % 1016,5 hPa 0,0 l/m 7,6 km/h (2 Bft) W-SW 247 7,8 C 10,1 C 11,8 km/h (2 Bft)
20.04.2021 12:20 11,5 C 11,0 C 7,1 C 8,5 C 7,9 C 69 % 82 % 74 % 78 % 88 % 1016,1 hPa 0,0 l/m 7,7 km/h (2 Bft) S 180 8,0 C 10,1 C 15,9 km/h (3 Bft)
20.04.2021 12:18 11,3 C 11,0 C 7,1 C 8,5 C 7,8 C 69 % 82 % 74 % 78 % 88 % 1016,1 hPa 0,0 l/m 7,6 km/h (2 Bft) S-SO 157 8,0 C 10,2 C 12,6 km/h (3 Bft)
20.04.2021 12:16 11,4 C 10,9 C 7,1 C 8,5 C 7,8 C 69 % 82 % 74 % 78 % 88 % 1016,1 hPa 0,0 l/m 8,0 km/h (2 Bft) SW 225 7,9 C 9,8 C 11,6 km/h (2 Bft)
20.04.2021 12:14 11,4 C 10,9 C 7,1 C 8,5 C 7,9 C 69 % 83 % 74 % 78 % 88 % 1016,1 hPa 0,0 l/m 7,9 km/h (2 Bft) S-SW 202 8,1 C 9,9 C 10,6 km/h (2 Bft)
20.04.2021 12:12 11,3 C 10,8 C 7,1 C 8,5 C 7,7 C 69 % 86 % 74 % 78 % 88 % 1016,1 hPa 0,0 l/m 8,0 km/h (2 Bft) S-SW 202 8,6 C 9,7 C 16,4 km/h (3 Bft)
20.04.2021 12:10 11,3 C 10,8 C 7,1 C 8,5 C 7,7 C 69 % 86 % 74 % 78 % 88 % 1016,1 hPa 0,0 l/m 6,4 km/h (2 Bft) S-SW 202 8,6 C 10,8 C 18,1 km/h (3 Bft)
20.04.2021 12:08 11,1 C 10,8 C 7,1 C 8,5 C 7,7 C 69 % 86 % 74 % 78 % 88 % 1016,1 hPa 0,0 l/m 6,4 km/h (2 Bft) S-SW 202 8,6 C 10,8 C 18,1 km/h (3 Bft)
20.04.2021 12:06 11,2 C 10,8 C 7,1 C 8,5 C 7,7 C 70 % 86 % 74 % 78 % 88 % 1016,1 hPa 0,0 l/m 6,4 km/h (2 Bft) S-SW 202 8,6 C 10,8 C 18,1 km/h (3 Bft)
20.04.2021 12:04 11,1 C 10,8 C 7,1 C 8,5 C 7,7 C 70 % 86 % 74 % 78 % 88 % 1016,1 hPa 0,0 l/m 6,4 km/h (2 Bft) S-SW 202 8,6 C 10,8 C 18,1 km/h (3 Bft)
20.04.2021 12:02 11,1 C 10,8 C 7,1 C 8,5 C 7,7 C 70 % 86 % 74 % 78 % 88 % 1016,1 hPa 0,0 l/m 6,4 km/h (2 Bft) S-SW 202 8,6 C 10,8 C 18,1 km/h (3 Bft)
20.04.2021 12:00 11,0 C 10,8 C 7,1 C 8,5 C 7,7 C 70 % 87 % 74 % 78 % 88 % 1016,2 hPa 0,0 l/m 6,3 km/h (2 Bft) S-SW 202 8,7 C 10,8 C 15,4 km/h (3 Bft)
20.04.2021 11:58 11,0 C 10,7 C 7,1 C 8,5 C 7,7 C 70 % 87 % 74 % 78 % 88 % 1016,2 hPa 0,0 l/m 6,0 km/h (2 Bft) W 270 8,6 C 10,7 C 12,8 km/h (3 Bft)
20.04.2021 11:56 10,8 C 10,4 C 7,0 C 8,5 C 7,7 C 70 % 88 % 74 % 78 % 88 % 1016,2 hPa 0,0 l/m 5,6 km/h (1 Bft) SW 225 8,5 C 10,4 C 10,9 km/h (2 Bft)
20.04.2021 11:54 10,8 C 10,3 C 7,1 C 8,4 C 7,6 C 70 % 88 % 74 % 78 % 88 % 1016,2 hPa 0,0 l/m 5,0 km/h (1 Bft) W-SW 247 8,4 C 10,3 C 5,3 km/h (1 Bft)
20.04.2021 11:52 10,8 C 10,2 C 7,0 C 8,4 C 7,6 C 70 % 88 % 74 % 78 % 88 % 1016,2 hPa 0,0 l/m 4,8 km/h (1 Bft) S-SW 202 8,3 C 10,2 C 10,9 km/h (2 Bft)
20.04.2021 11:50 10,8 C 10,2 C 7,1 C 8,5 C 7,6 C 70 % 90 % 74 % 78 % 88 % 1016,2 hPa 0,0 l/m 4,5 km/h (1 Bft) W-NW 292 8,6 C 10,2 C 9,9 km/h (2 Bft)
20.04.2021 11:48 10,6 C 10,2 C 7,1 C 8,5 C 7,6 C 70 % 90 % 74 % 78 % 88 % 1016,2 hPa 0,0 l/m 4,0 km/h (1 Bft) S 180 8,6 C 10,2 C 12,3 km/h (3 Bft)
20.04.2021 11:46 10,7 C 10,1 C 7,1 C 8,4 C 7,7 C 71 % 90 % 74 % 78 % 88 % 1016,2 hPa 0,0 l/m 4,2 km/h (1 Bft) SW 225 8,5 C 10,1 C 6,5 km/h (2 Bft)
20.04.2021 11:44 10,6 C 10,0 C 7,1 C 8,5 C 7,6 C 71 % 90 % 74 % 78 % 88 % 1016,2 hPa 0,0 l/m 4,2 km/h (1 Bft) S-SW 202 8,4 C 10,0 C 7,7 km/h (2 Bft)
20.04.2021 11:42 10,6 C 10,0 C 7,1 C 8,5 C 7,6 C 71 % 90 % 74 % 78 % 88 % 1016,2 hPa 0,0 l/m 4,3 km/h (1 Bft) W-SW 247 8,4 C 10,0 C 7,7 km/h (2 Bft)
20.04.2021 11:40 10,6 C 9,9 C 7,1 C 8,5 C 7,5 C 71 % 91 % 74 % 78 % 88 % 1015,7 hPa 0,0 l/m 4,5 km/h (1 Bft) S 180 8,5 C 9,9 C 5,1 km/h (1 Bft)
20.04.2021 11:38 10,4 C 9,9 C 7,1 C 8,5 C 7,5 C 71 % 91 % 74 % 78 % 88 % 1015,7 hPa 0,0 l/m 5,0 km/h (1 Bft) W-NW 292 8,5 C 9,9 C 5,8 km/h (2 Bft)
20.04.2021 11:36 10,3 C 9,9 C 7,1 C 8,4 C 7,5 C 71 % 92 % 74 % 78 % 88 % 1015,7 hPa 0,0 l/m 5,3 km/h (1 Bft) SW 225 8,7 C 9,9 C 9,7 km/h (2 Bft)
20.04.2021 11:34 10,3 C 9,8 C 7,0 C 8,4 C 7,5 C 72 % 92 % 74 % 78 % 88 % 1015,7 hPa 0,0 l/m 5,6 km/h (1 Bft) S-SW 202 8,6 C 9,8 C 19,6 km/h (3 Bft)
20.04.2021 11:32 10,4 C 9,5 C 7,1 C 8,4 C 7,4 C 72 % 92 % 74 % 78 % 88 % 1015,7 hPa 0,0 l/m 6,0 km/h (2 Bft) S 180 8,3 C 9,5 C 9,9 km/h (2 Bft)
20.04.2021 11:30 10,4 C 9,3 C 7,1 C 8,4 C 7,5 C 72 % 92 % 74 % 78 % 88 % 1015,7 hPa 0,0 l/m 6,1 km/h (2 Bft) W-SW 247 8,1 C 9,3 C 7,5 km/h (2 Bft)
20.04.2021 11:28 10,2 C 9,1 C 7,1 C 8,5 C 7,5 C 72 % 92 % 74 % 78 % 88 % 1015,7 hPa 0,0 l/m 6,3 km/h (2 Bft) S 180 7,9 C 9,1 C 11,3 km/h (2 Bft)
20.04.2021 11:26 10,3 C 9,0 C 7,1 C 8,4 C 7,5 C 72 % 92 % 74 % 78 % 88 % 1015,7 hPa 0,0 l/m 6,1 km/h (2 Bft) S 180 7,8 C 9,0 C 10,4 km/h (2 Bft)
20.04.2021 11:24 10,3 C 8,8 C 7,1 C 8,5 C 7,5 C 72 % 92 % 74 % 78 % 88 % 1015,7 hPa 0,0 l/m 6,0 km/h (2 Bft) SW 225 7,6 C 8,8 C 9,7 km/h (2 Bft)
20.04.2021 11:22 10,1 C 8,7 C 7,1 C 8,4 C 7,5 C 72 % 92 % 74 % 78 % 88 % 1015,7 hPa 0,0 l/m 6,3 km/h (2 Bft) W 270 7,5 C 8,7 C 13,3 km/h (3 Bft)
20.04.2021 11:20 10,1 C 8,6 C 7,1 C 8,5 C 7,5 C 72 % 92 % 74 % 78 % 88 % 1015,7 hPa 0,0 l/m 5,8 km/h (2 Bft) W-SW 247 7,4 C 8,6 C 9,2 km/h (2 Bft)
20.04.2021 11:18 10,2 C 8,4 C 7,0 C 8,5 C 7,4 C 72 % 92 % 74 % 78 % 88 % 1015,7 hPa 0,0 l/m 5,3 km/h (1 Bft) W-NW 292 7,2 C 8,4 C 11,6 km/h (2 Bft)
20.04.2021 11:16 10,2 C 8,3 C 7,1 C 8,5 C 7,4 C 72 % 92 % 74 % 78 % 88 % 1015,7 hPa 0,0 l/m 5,0 km/h (1 Bft) W-SW 247 7,1 C 8,3 C 7,7 km/h (2 Bft)
20.04.2021 11:14 10,2 C 8,2 C 7,0 C 8,5 C 7,4 C 72 % 92 % 74 % 78 % 88 % 1015,7 hPa 0,0 l/m 5,0 km/h (1 Bft) SW 225 7,0 C 8,2 C 8,4 km/h (2 Bft)
20.04.2021 11:12 10,2 C 8,1 C 7,0 C 8,5 C 7,3 C 72 % 92 % 74 % 78 % 87 % 1015,7 hPa 0,0 l/m 5,5 km/h (1 Bft) SW 225 6,9 C 8,1 C 12,6 km/h (3 Bft)
20.04.2021 11:10 10,2 C 7,9 C 7,0 C 8,5 C 7,3 C 72 % 92 % 74 % 78 % 87 % 1015,7 hPa 0,0 l/m 5,0 km/h (1 Bft) W-SW 247 6,7 C 7,9 C 6,0 km/h (2 Bft)
20.04.2021 11:08 10,2 C 7,8 C 7,0 C 8,5 C 7,4 C 72 % 92 % 74 % 78 % 87 % 1015,7 hPa 0,0 l/m 4,8 km/h (1 Bft) SW 225 6,6 C 7,8 C 7,2 km/h (2 Bft)
20.04.2021 11:06 10,2 C 7,8 C 7,0 C 8,5 C 7,4 C 72 % 92 % 74 % 78 % 87 % 1015,7 hPa 0,0 l/m 4,8 km/h (1 Bft) W 270 6,6 C 7,8 C 10,1 km/h (2 Bft)
20.04.2021 11:04 10,2 C 7,7 C 7,0 C 8,5 C 7,3 C 72 % 92 % 74 % 78 % 87 % 1015,7 hPa 0,0 l/m 4,7 km/h (1 Bft) W-SW 247 6,5 C 7,7 C 7,2 km/h (2 Bft)
20.04.2021 11:02 10,2 C 7,7 C 7,0 C 8,5 C 7,3 C 72 % 92 % 74 % 78 % 87 % 1015,7 hPa 0,0 l/m 4,2 km/h (1 Bft) SW 225 6,5 C 7,7 C 16,7 km/h (3 Bft)
20.04.2021 11:00 10,2 C 7,7 C 7,0 C 8,5 C 7,3 C 72 % 92 % 74 % 78 % 87 % 1015,6 hPa 0,0 l/m 3,9 km/h (1 Bft) NW 315 6,5 C 7,7 C 4,6 km/h (1 Bft)
20.04.2021 10:58 10,2 C 7,7 C 7,0 C 8,5 C 7,3 C 72 % 92 % 74 % 78 % 87 % 1015,6 hPa 0,0 l/m 3,7 km/h (1 Bft) S-SW 202 6,5 C 7,7 C 6,8 km/h (2 Bft)
20.04.2021 10:56 10,2 C 7,6 C 7,0 C 8,5 C 7,3 C 72 % 92 % 74 % 78 % 87 % 1015,6 hPa 0,1 l/m 3,5 km/h (1 Bft) SW 225 6,4 C 7,6 C 5,3 km/h (1 Bft)
20.04.2021 10:54 10,2 C 7,6 C 7,0 C 8,5 C 7,3 C 72 % 92 % 74 % 78 % 87 % 1015,6 hPa 0,0 l/m 3,4 km/h (1 Bft) S-SW 202 6,4 C 7,6 C 7,7 km/h (2 Bft)
20.04.2021 10:52 10,2 C 7,6 C 7,0 C 8,5 C 7,3 C 72 % 92 % 74 % 78 % 87 % 1015,6 hPa 0,0 l/m 3,5 km/h (1 Bft) S-SW 202 6,4 C 7,6 C 7,2 km/h (2 Bft)
20.04.2021 10:50 10,2 C 7,6 C 7,0 C 8,5 C 7,3 C 72 % 92 % 74 % 78 % 87 % 1015,6 hPa 0,0 l/m 3,9 km/h (1 Bft) W-NW 292 6,4 C 7,6 C 5,6 km/h (1 Bft)
20.04.2021 10:48 10,1 C 7,5 C 7,0 C 8,5 C 7,3 C 72 % 92 % 74 % 78 % 87 % 1015,6 hPa 0,0 l/m 4,5 km/h (1 Bft) W-SW 247 6,3 C 7,5 C 2,7 km/h (1 Bft)
20.04.2021 10:46 10,1 C 7,5 C 7,0 C 8,5 C 7,3 C 71 % 92 % 74 % 78 % 87 % 1015,6 hPa 0,0 l/m 4,7 km/h (1 Bft) W 270 6,3 C 7,5 C 2,7 km/h (1 Bft)
20.04.2021 10:44 10,1 C 7,5 C 7,0 C 8,5 C 7,3 C 71 % 92 % 74 % 78 % 87 % 1015,6 hPa 0,0 l/m 5,3 km/h (1 Bft) W-SW 247 6,3 C 7,5 C 7,2 km/h (2 Bft)
20.04.2021 10:42 10,1 C 7,5 C 7,0 C 8,5 C 7,3 C 71 % 92 % 74 % 78 % 87 % 1015,6 hPa 0,0 l/m 5,0 km/h (1 Bft) W-SW 247 6,3 C 7,5 C 8,0 km/h (2 Bft)
20.04.2021 10:40 10,1 C 7,5 C 7,0 C 8,5 C 7,3 C 71 % 92 % 74 % 78 % 87 % 1015,5 hPa 0,0 l/m 4,8 km/h (1 Bft) W-SW 247 6,3 C 7,5 C 6,8 km/h (2 Bft)
20.04.2021 10:38 10,1 C 7,5 C 7,0 C 8,5 C 7,3 C 71 % 93 % 74 % 78 % 87 % 1015,5 hPa 0,0 l/m 4,5 km/h (1 Bft) S-SW 202 6,4 C 7,5 C 10,6 km/h (2 Bft)
20.04.2021 10:36 10,1 C 7,5 C 7,0 C 8,5 C 7,2 C 71 % 93 % 74 % 78 % 87 % 1015,5 hPa 0,0 l/m 3,9 km/h (1 Bft) W-NW 292 6,4 C 7,5 C 7,5 km/h (2 Bft)
20.04.2021 10:34 10,1 C 7,6 C 6,9 C 8,5 C 7,2 C 71 % 93 % 74 % 78 % 87 % 1015,5 hPa 0,0 l/m 3,1 km/h (1 Bft) NW 315 6,5 C 7,6 C 11,8 km/h (2 Bft)
20.04.2021 10:32 9,9 C 7,5 C 7,0 C 8,5 C 7,2 C 71 % 93 % 74 % 78 % 87 % 1015,5 hPa 0,0 l/m 2,6 km/h (1 Bft) NW 315 6,4 C 7,5 C 6,3 km/h (2 Bft)
20.04.2021 10:30 9,9 C 7,5 C 7,0 C 8,5 C 7,2 C 71 % 93 % 74 % 78 % 87 % 1015,5 hPa 0,0 l/m 2,6 km/h (1 Bft) W-NW 292 6,4 C 7,5 C 9,9 km/h (2 Bft)
20.04.2021 10:28 9,9 C 7,5 C 7,0 C 8,5 C 7,2 C 71 % 93 % 74 % 78 % 87 % 1015,5 hPa 0,0 l/m 2,6 km/h (1 Bft) W-NW 292 6,4 C 7,5 C 6,5 km/h (2 Bft)
20.04.2021 10:26 9,9 C 7,5 C 6,9 C 8,4 C 7,2 C 71 % 93 % 74 % 78 % 87 % 1015,5 hPa 0,0 l/m 2,7 km/h (1 Bft) W 270 6,4 C 7,5 C 3,4 km/h (1 Bft)
20.04.2021 10:24 10,0 C 7,5 C 7,0 C 8,4 C 7,2 C 71 % 93 % 74 % 78 % 87 % 1015,5 hPa 0,0 l/m 3,1 km/h (1 Bft) NW 315 6,4 C 7,5 C 6,5 km/h (2 Bft)
20.04.2021 10:22 10,0 C 7,5 C 7,0 C 8,4 C 7,2 C 71 % 93 % 74 % 78 % 87 % 1015,5 hPa 0,0 l/m 3,1 km/h (1 Bft) W-SW 247 6,4 C 7,5 C 0,0 km/h (0 Bft)
20.04.2021 10:20 10,0 C 7,5 C 7,0 C 8,4 C 7,3 C 71 % 93 % 74 % 78 % 87 % 1015,2 hPa 0,0 l/m 3,5 km/h (1 Bft) NW 315 6,4 C 7,5 C 8,7 km/h (2 Bft)
20.04.2021 10:18 10,0 C 7,6 C 7,0 C 8,4 C 7,2 C 72 % 93 % 74 % 78 % 87 % 1015,2 hPa 0,0 l/m 3,2 km/h (1 Bft) W-NW 292 6,5 C 7,6 C 7,7 km/h (2 Bft)
20.04.2021 10:16 9,8 C 7,6 C 7,0 C 8,4 C 7,2 C 72 % 93 % 74 % 78 % 87 % 1015,2 hPa 0,0 l/m 3,4 km/h (1 Bft) NW 315 6,5 C 7,6 C 10,1 km/h (2 Bft)
20.04.2021 10:14 9,9 C 7,6 C 7,0 C 8,4 C 7,2 C 72 % 93 % 74 % 78 % 87 % 1015,2 hPa 0,0 l/m 3,5 km/h (1 Bft) NW 315 6,5 C 7,6 C 5,3 km/h (1 Bft)
20.04.2021 10:12 9,9 C 7,6 C 7,0 C 8,4 C 7,2 C 72 % 93 % 74 % 78 % 87 % 1015,2 hPa 0,0 l/m 3,7 km/h (1 Bft) S-SW 202 6,5 C 7,6 C 6,5 km/h (2 Bft)
20.04.2021 10:10 9,8 C 7,6 C 7,0 C 8,4 C 7,2 C 72 % 94 % 74 % 78 % 87 % 1015,2 hPa 0,0 l/m 3,4 km/h (1 Bft) W-SW 247 6,7 C 7,6 C 3,1 km/h (1 Bft)
20.04.2021 10:08 9,8 C 7,6 C 6,9 C 8,4 C 7,2 C 72 % 94 % 74 % 78 % 87 % 1015,2 hPa 0,0 l/m 4,3 km/h (1 Bft) W-SW 247 6,7 C 7,6 C 3,6 km/h (1 Bft)
20.04.2021 10:06 9,8 C 7,6 C 7,0 C 8,4 C 7,2 C 73 % 94 % 74 % 78 % 87 % 1015,2 hPa 0,0 l/m 4,5 km/h (1 Bft) W-SW 247 6,7 C 7,6 C 15,0 km/h (3 Bft)
20.04.2021 10:04 9,8 C 7,6 C 6,9 C 8,4 C 7,2 C 73 % 94 % 74 % 78 % 87 % 1015,2 hPa 0,0 l/m 4,5 km/h (1 Bft) W-NW 292 6,7 C 7,6 C 5,8 km/h (2 Bft)
20.04.2021 10:02 9,6 C 7,7 C 7,0 C 8,4 C 7,2 C 73 % 94 % 74 % 78 % 87 % 1015,2 hPa 0,0 l/m 4,7 km/h (1 Bft) W-SW 247 6,8 C 7,7 C 5,1 km/h (1 Bft)
20.04.2021 10:00 9,6 C 7,5 C 7,0 C 8,4 C 7,2 C 73 % 94 % 74 % 78 % 87 % 1014,9 hPa 0,0 l/m 4,7 km/h (1 Bft) W-NW 292 6,6 C 7,5 C 3,9 km/h (1 Bft)
20.04.2021 09:58 9,7 C 7,5 C 7,0 C 8,4 C 7,2 C 73 % 94 % 74 % 78 % 87 % 1014,9 hPa 0,0 l/m 4,8 km/h (1 Bft) W 270 6,6 C 7,5 C 16,4 km/h (3 Bft)
20.04.2021 09:56 9,7 C 7,5 C 6,9 C 8,4 C 7,2 C 73 % 94 % 74 % 78 % 87 % 1014,9 hPa 0,0 l/m 4,2 km/h (1 Bft) NW 315 6,6 C 7,5 C 10,1 km/h (2 Bft)
20.04.2021 09:54 9,6 C 7,5 C 7,0 C 8,4 C 7,2 C 73 % 94 % 74 % 78 % 87 % 1014,9 hPa 0,0 l/m 3,7 km/h (1 Bft) W 270 6,6 C 7,5 C 13,3 km/h (3 Bft)
20.04.2021 09:52 9,6 C 7,4 C 6,9 C 8,4 C 7,2 C 73 % 94 % 74 % 78 % 87 % 1014,9 hPa 0,0 l/m 3,4 km/h (1 Bft) W-NW 292 6,5 C 7,4 C 7,5 km/h (2 Bft)
20.04.2021 09:50 9,6 C 7,4 C 7,0 C 8,4 C 7,2 C 73 % 94 % 74 % 78 % 87 % 1014,9 hPa 0,0 l/m 3,5 km/h (1 Bft) W-SW 247 6,5 C 7,4 C 5,6 km/h (1 Bft)
20.04.2021 09:48 9,6 C 7,4 C 7,0 C 8,4 C 7,2 C 73 % 94 % 74 % 78 % 87 % 1014,9 hPa 0,0 l/m 3,4 km/h (1 Bft) W-SW 247 6,5 C 7,4 C 6,8 km/h (2 Bft)
20.04.2021 09:46 9,6 C 7,3 C 7,0 C 8,4 C 7,2 C 73 % 94 % 74 % 78 % 87 % 1014,9 hPa 0,0 l/m 3,4 km/h (1 Bft) W-SW 247 6,4 C 7,3 C 4,6 km/h (1 Bft)
20.04.2021 09:44 9,6 C 7,3 C 7,0 C 8,4 C 7,2 C 73 % 94 % 74 % 78 % 87 % 1014,9 hPa 0,0 l/m 3,5 km/h (1 Bft) S-SW 202 6,4 C 7,3 C 7,5 km/h (2 Bft)
20.04.2021 09:42 9,6 C 7,2 C 6,9 C 8,4 C 7,2 C 73 % 94 % 74 % 78 % 87 % 1014,9 hPa 0,0 l/m 3,1 km/h (1 Bft) W 270 6,3 C 7,2 C 2,7 km/h (1 Bft)
20.04.2021 09:40 9,6 C 7,2 C 6,9 C 8,4 C 7,2 C 73 % 94 % 74 % 78 % 87 % 1015,1 hPa 0,0 l/m 3,5 km/h (1 Bft) S-SW 202 6,3 C 7,2 C 5,6 km/h (1 Bft)
20.04.2021 09:38 9,5 C 7,1 C 7,0 C 8,4 C 7,3 C 73 % 94 % 74 % 78 % 87 % 1015,1 hPa 0,0 l/m 3,4 km/h (1 Bft) S-SO 157 6,2 C 7,1 C 4,1 km/h (1 Bft)
20.04.2021 09:36 9,5 C 7,1 C 7,0 C 8,4 C 7,3 C 73 % 94 % 74 % 78 % 87 % 1015,1 hPa 0,0 l/m 3,2 km/h (1 Bft) W-SW 247 6,2 C 7,1 C 5,8 km/h (2 Bft)
20.04.2021 09:34 9,5 C 7,1 C 6,9 C 8,4 C 7,3 C 73 % 94 % 74 % 78 % 87 % 1015,1 hPa 0,0 l/m 3,5 km/h (1 Bft) SW 225 6,2 C 7,1 C 6,8 km/h (2 Bft)
20.04.2021 09:32 9,5 C 7,0 C 6,9 C 8,4 C 7,2 C 73 % 94 % 74 % 78 % 87 % 1015,1 hPa 0,0 l/m 3,7 km/h (1 Bft) SW 225 6,1 C 7,0 C 3,9 km/h (1 Bft)
20.04.2021 09:30 9,5 C 7,0 C 7,0 C 8,4 C 7,3 C 73 % 94 % 74 % 78 % 87 % 1015,1 hPa 0,0 l/m 3,5 km/h (1 Bft) W-NW 292 6,1 C 7,0 C 7,5 km/h (2 Bft)
20.04.2021 09:28 9,5 C 6,9 C 6,9 C 8,4 C 7,3 C 73 % 95 % 74 % 78 % 87 % 1015,1 hPa 0,0 l/m 3,5 km/h (1 Bft) SW 225 6,2 C 6,9 C 5,6 km/h (1 Bft)
20.04.2021 09:26 9,5 C 6,9 C 6,9 C 8,4 C 7,3 C 73 % 95 % 74 % 78 % 87 % 1015,1 hPa 0,0 l/m 3,4 km/h (1 Bft) S-SW 202 6,2 C 6,9 C 5,1 km/h (1 Bft)
20.04.2021 09:24 9,5 C 6,9 C 6,9 C 8,4 C 7,3 C 73 % 95 % 74 % 78 % 87 % 1015,1 hPa 0,0 l/m 3,2 km/h (1 Bft) W-SW 247 6,2 C 6,9 C 11,3 km/h (2 Bft)
20.04.2021 09:22 9,5 C 6,9 C 6,9 C 8,4 C 7,3 C 73 % 95 % 74 % 78 % 87 % 1015,1 hPa 0,0 l/m 3,2 km/h (1 Bft) SW 225 6,2 C 6,9 C 5,1 km/h (1 Bft)
20.04.2021 09:20 9,5 C 6,9 C 7,0 C 8,4 C 7,2 C 73 % 95 % 74 % 78 % 87 % 1014,9 hPa 0,0 l/m 3,2 km/h (1 Bft) W-SW 247 6,2 C 6,9 C 8,4 km/h (2 Bft)
20.04.2021 09:18 9,3 C 6,9 C 6,9 C 8,4 C 7,2 C 73 % 95 % 74 % 78 % 87 % 1014,9 hPa 0,0 l/m 3,4 km/h (1 Bft) S-SW 202 6,2 C 6,9 C 6,0 km/h (2 Bft)
20.04.2021 09:16 9,3 C 6,9 C 6,9 C 8,4 C 7,2 C 73 % 95 % 74 % 78 % 87 % 1014,9 hPa 0,0 l/m 3,5 km/h (1 Bft) W-SW 247 6,2 C 6,9 C 8,0 km/h (2 Bft)
20.04.2021 09:14 9,4 C 6,8 C 6,9 C 8,4 C 7,3 C 73 % 95 % 74 % 78 % 87 % 1014,9 hPa 0,0 l/m 3,9 km/h (1 Bft) SW 225 6,1 C 6,8 C 5,1 km/h (1 Bft)
20.04.2021 09:12 9,4 C 6,8 C 6,9 C 8,4 C 7,3 C 73 % 95 % 74 % 78 % 87 % 1014,9 hPa 0,0 l/m 3,9 km/h (1 Bft) W-NW 292 6,1 C 6,8 C 7,5 km/h (2 Bft)
20.04.2021 09:10 9,4 C 6,8 C 6,9 C 8,4 C 7,3 C 73 % 95 % 74 % 78 % 87 % 1014,9 hPa 0,0 l/m 3,9 km/h (1 Bft) W-NW 292 6,1 C 6,8 C 7,5 km/h (2 Bft)
20.04.2021 09:08 9,4 C 6,7 C 6,9 C 8,4 C 7,3 C 73 % 95 % 74 % 78 % 87 % 1014,9 hPa 0,0 l/m 4,2 km/h (1 Bft) SW 225 6,0 C 6,7 C 5,8 km/h (2 Bft)
20.04.2021 09:06 9,4 C 6,7 C 6,9 C 8,4 C 7,3 C 73 % 95 % 74 % 78 % 87 % 1014,9 hPa 0,0 l/m 4,0 km/h (1 Bft) S 180 6,0 C 6,7 C 6,0 km/h (2 Bft)
20.04.2021 09:04 9,4 C 6,7 C 6,9 C 8,4 C 7,3 C 73 % 95 % 74 % 78 % 87 % 1014,9 hPa 0,0 l/m 3,7 km/h (1 Bft) S 180 6,0 C 6,7 C 5,6 km/h (1 Bft)
20.04.2021 09:02 9,4 C 6,7 C 6,9 C 8,4 C 7,3 C 73 % 95 % 74 % 78 % 87 % 1014,9 hPa 0,0 l/m 3,7 km/h (1 Bft) W-SW 247 6,0 C 6,7 C 3,9 km/h (1 Bft)
20.04.2021 09:00 9,2 C 6,7 C 6,9 C 8,4 C 7,3 C 73 % 95 % 74 % 78 % 87 % 1014,8 hPa 0,0 l/m 3,5 km/h (1 Bft) W 270 6,0 C 6,7 C 7,5 km/h (2 Bft)
20.04.2021 08:58 9,2 C 6,7 C 6,9 C 8,4 C 7,3 C 73 % 95 % 74 % 78 % 87 % 1014,8 hPa 0,0 l/m 3,7 km/h (1 Bft) W 270 6,0 C 6,7 C 7,5 km/h (2 Bft)
20.04.2021 08:56 9,2 C 6,7 C 6,9 C 8,4 C 7,2 C 73 % 95 % 74 % 78 % 87 % 1014,8 hPa 0,0 l/m 4,0 km/h (1 Bft) SW 225 6,0 C 6,7 C 8,4 km/h (2 Bft)
20.04.2021 08:54 9,2 C 6,7 C 6,9 C 8,4 C 7,3 C 73 % 95 % 74 % 78 % 87 % 1014,8 hPa 0,0 l/m 4,3 km/h (1 Bft) W-NW 292 6,0 C 6,7 C 5,1 km/h (1 Bft)
20.04.2021 08:52 9,3 C 6,6 C 6,9 C 8,4 C 7,3 C 73 % 95 % 74 % 78 % 87 % 1014,8 hPa 0,0 l/m 5,0 km/h (1 Bft) SW 225 5,9 C 6,6 C 5,1 km/h (1 Bft)
20.04.2021 08:50 9,3 C 6,6 C 6,9 C 8,4 C 7,2 C 73 % 95 % 74 % 78 % 87 % 1014,8 hPa 0,0 l/m 5,3 km/h (1 Bft) W-SW 247 5,9 C 6,6 C 9,2 km/h (2 Bft)
20.04.2021 08:48 9,1 C 6,6 C 6,9 C 8,4 C 7,2 C 73 % 95 % 74 % 78 % 87 % 1014,8 hPa 0,0 l/m 5,3 km/h (1 Bft) W-SW 247 5,9 C 6,6 C 8,9 km/h (2 Bft)
20.04.2021 08:46 9,1 C 6,4 C 6,9 C 8,4 C 7,2 C 73 % 95 % 74 % 78 % 87 % 1014,8 hPa 0,0 l/m 6,0 km/h (2 Bft) W-SW 247 5,7 C 6,4 C 8,2 km/h (2 Bft)
20.04.2021 08:44 9,1 C 6,4 C 6,9 C 8,4 C 7,2 C 73 % 95 % 74 % 78 % 87 % 1014,8 hPa 0,0 l/m 6,0 km/h (2 Bft) W 270 5,7 C 6,4 C 10,1 km/h (2 Bft)
20.04.2021 08:42 9,1 C 6,4 C 7,0 C 8,4 C 7,2 C 73 % 95 % 74 % 78 % 87 % 1014,8 hPa 0,0 l/m 5,5 km/h (1 Bft) W-NW 292 5,7 C 6,4 C 12,8 km/h (3 Bft)
20.04.2021 08:40 9,1 C 6,3 C 6,9 C 8,4 C 7,2 C 73 % 95 % 74 % 78 % 87 % 1014,6 hPa 0,0 l/m 5,5 km/h (1 Bft) W-NW 292 5,6 C 6,3 C 8,4 km/h (2 Bft)
20.04.2021 08:38 9,1 C 6,3 C 6,9 C 8,4 C 7,3 C 73 % 95 % 74 % 78 % 87 % 1014,6 hPa 0,0 l/m 5,6 km/h (1 Bft) W-NW 292 5,6 C 6,3 C 7,7 km/h (2 Bft)
20.04.2021 08:36 9,2 C 6,3 C 6,9 C 8,4 C 7,2 C 73 % 95 % 74 % 78 % 87 % 1014,6 hPa 0,0 l/m 5,3 km/h (1 Bft) W-NW 292 5,6 C 6,3 C 12,8 km/h (3 Bft)
20.04.2021 08:34 9,2 C 6,3 C 6,9 C 8,4 C 7,3 C 73 % 95 % 74 % 78 % 87 % 1014,6 hPa 0,0 l/m 5,1 km/h (1 Bft) W-SW 247 5,6 C 6,3 C 18,1 km/h (3 Bft)
20.04.2021 08:32 9,2 C 6,3 C 6,9 C 8,4 C 7,2 C 73 % 95 % 74 % 78 % 87 % 1014,6 hPa 0,0 l/m 5,1 km/h (1 Bft) W 270 5,6 C 6,3 C 5,1 km/h (1 Bft)
20.04.2021 08:30 9,2 C 6,3 C 6,9 C 8,4 C 7,2 C 73 % 95 % 74 % 78 % 87 % 1014,6 hPa 0,0 l/m 5,1 km/h (1 Bft) W 270 5,6 C 6,3 C 11,3 km/h (2 Bft)
20.04.2021 08:28 9,2 C 6,3 C 6,9 C 8,4 C 7,2 C 73 % 95 % 74 % 78 % 87 % 1014,6 hPa 0,0 l/m 4,3 km/h (1 Bft) W-NW 292 5,6 C 6,3 C 13,5 km/h (3 Bft)
20.04.2021 08:26 9,2 C 6,3 C 6,9 C 8,4 C 7,2 C 73 % 95 % 74 % 78 % 87 % 1014,6 hPa 0,0 l/m 4,2 km/h (1 Bft) NW 315 5,6 C 6,3 C 3,4 km/h (1 Bft)
20.04.2021 08:24 9,2 C 6,3 C 6,9 C 8,4 C 7,2 C 73 % 95 % 74 % 78 % 87 % 1014,6 hPa 0,0 l/m 4,0 km/h (1 Bft) W 270 5,6 C 6,3 C 6,5 km/h (2 Bft)
20.04.2021 08:22 9,2 C 6,3 C 6,9 C 8,4 C 7,3 C 73 % 95 % 74 % 78 % 87 % 1014,6 hPa 0,0 l/m 4,3 km/h (1 Bft) W 270 5,6 C 6,3 C 9,7 km/h (2 Bft)
20.04.2021 08:20 9,2 C 6,3 C 6,9 C 8,4 C 7,2 C 73 % 95 % 74 % 78 % 87 % 1014,4 hPa 0,0 l/m 4,2 km/h (1 Bft) W-NW 292 5,6 C 6,3 C 9,7 km/h (2 Bft)
20.04.2021 08:18 9,2 C 6,3 C 6,9 C 8,4 C 7,2 C 73 % 95 % 74 % 78 % 87 % 1014,4 hPa 0,0 l/m 4,0 km/h (1 Bft) W-SW 247 5,6 C 6,3 C 3,4 km/h (1 Bft)
20.04.2021 08:16 9,2 C 6,3 C 6,9 C 8,4 C 7,2 C 73 % 95 % 74 % 78 % 87 % 1014,4 hPa 0,0 l/m 3,9 km/h (1 Bft) W-NW 292 5,6 C 6,3 C 14,2 km/h (3 Bft)
20.04.2021 08:14 9,2 C 6,3 C 6,9 C 8,4 C 7,2 C 73 % 95 % 74 % 78 % 87 % 1014,4 hPa 0,0 l/m 3,5 km/h (1 Bft) NW 315 5,6 C 6,3 C 4,8 km/h (1 Bft)
20.04.2021 08:12 9,2 C 6,3 C 6,9 C 8,4 C 7,2 C 73 % 95 % 74 % 78 % 87 % 1014,4 hPa 0,0 l/m 3,9 km/h (1 Bft) W-NW 292 5,6 C 6,3 C 10,4 km/h (2 Bft)
20.04.2021 08:10 9,1 C 6,3 C 6,9 C 8,4 C 7,2 C 73 % 95 % 74 % 78 % 87 % 1014,4 hPa 0,0 l/m 3,4 km/h (1 Bft) W 270 5,6 C 6,3 C 2,9 km/h (1 Bft)
20.04.2021 08:08 9,1 C 6,3 C 6,9 C 8,4 C 7,2 C 73 % 95 % 74 % 78 % 87 % 1014,4 hPa 0,0 l/m 3,4 km/h (1 Bft) NW 315 5,6 C 6,3 C 3,4 km/h (1 Bft)
20.04.2021 08:06 9,1 C 6,3 C 6,9 C 8,4 C 7,2 C 73 % 95 % 74 % 78 % 87 % 1014,4 hPa 0,0 l/m 3,1 km/h (1 Bft) S 180 5,6 C 6,3 C 2,9 km/h (1 Bft)
20.04.2021 08:04 9,1 C 6,3 C 6,9 C 8,4 C 7,2 C 73 % 95 % 74 % 78 % 87 % 1014,4 hPa 0,0 l/m 3,2 km/h (1 Bft) SW 225 5,6 C 6,3 C 5,3 km/h (1 Bft)
20.04.2021 08:02 9,1 C 6,3 C 6,9 C 8,4 C 7,2 C 73 % 95 % 74 % 78 % 87 % 1014,4 hPa 0,0 l/m 2,9 km/h (1 Bft) S 180 5,6 C 6,3 C 7,2 km/h (2 Bft)
20.04.2021 08:00 8,9 C 6,3 C 6,9 C 8,4 C 7,2 C 73 % 95 % 74 % 78 % 87 % 1014,2 hPa 0,0 l/m 2,3 km/h (1 Bft) S-SO 157 5,6 C 6,3 C 8,0 km/h (2 Bft)
20.04.2021 07:58 8,9 C 6,3 C 6,9 C 8,4 C 7,2 C 73 % 95 % 74 % 78 % 87 % 1014,2 hPa 0,0 l/m 2,3 km/h (1 Bft) S 180 5,6 C 6,3 C 4,1 km/h (1 Bft)
20.04.2021 07:56 9,0 C 6,3 C 6,9 C 8,4 C 7,2 C 73 % 95 % 74 % 78 % 87 % 1014,2 hPa 0,0 l/m 1,9 km/h (1 Bft) S-SW 202 5,6 C 6,3 C 4,6 km/h (1 Bft)
20.04.2021 07:54 9,0 C 6,3 C 6,9 C 8,4 C 7,2 C 73 % 95 % 74 % 78 % 87 % 1014,2 hPa 0,0 l/m 1,6 km/h (1 Bft) S 180 5,6 C 6,3 C 6,0 km/h (2 Bft)
20.04.2021 07:52 9,0 C 6,3 C 6,9 C 8,4 C 7,2 C 73 % 95 % 74 % 78 % 87 % 1014,2 hPa 0,0 l/m 1,3 km/h (1 Bft) W-SW 247 5,6 C 6,3 C 2,4 km/h (1 Bft)
20.04.2021 07:50 9,0 C 6,2 C 6,9 C 8,4 C 7,2 C 73 % 95 % 74 % 78 % 87 % 1014,2 hPa 0,0 l/m 1,4 km/h (1 Bft) W-NW 292 5,5 C 6,2 C 0,0 km/h (0 Bft)
20.04.2021 07:48 9,0 C 6,2 C 6,9 C 8,4 C 7,2 C 73 % 95 % 74 % 78 % 87 % 1014,2 hPa 0,0 l/m 1,4 km/h (1 Bft) O-NO 67 5,5 C 6,2 C 5,8 km/h (2 Bft)
20.04.2021 07:46 9,0 C 6,2 C 6,9 C 8,4 C 7,2 C 73 % 95 % 74 % 78 % 87 % 1014,2 hPa 0,0 l/m 1,6 km/h (1 Bft) S-SW 202 5,5 C 6,2 C 0,0 km/h (0 Bft)
20.04.2021 07:44 9,0 C 6,2 C 6,9 C 8,4 C 7,2 C 73 % 95 % 74 % 78 % 87 % 1014,2 hPa 0,0 l/m 1,9 km/h (1 Bft) S-SW 202 5,5 C 6,2 C 3,1 km/h (1 Bft)
20.04.2021 07:42 9,0 C 6,1 C 6,9 C 8,4 C 7,2 C 73 % 95 % 74 % 78 % 87 % 1014,2 hPa 0,0 l/m 2,1 km/h (1 Bft) W-SW 247 5,4 C 6,1 C 3,1 km/h (1 Bft)
20.04.2021 07:40 9,0 C 6,1 C 6,9 C 8,4 C 7,2 C 73 % 95 % 74 % 78 % 87 % 1014,3 hPa 0,0 l/m 1,9 km/h (1 Bft) S-SW 202 5,4 C 6,1 C 0,0 km/h (0 Bft)
20.04.2021 07:38 8,8 C 6,1 C 6,9 C 8,4 C 7,2 C 73 % 95 % 74 % 78 % 87 % 1014,3 hPa 0,0 l/m 2,6 km/h (1 Bft) S-SW 202 5,4 C 6,1 C 2,9 km/h (1 Bft)
20.04.2021 07:36 8,8 C 6,1 C 6,9 C 8,4 C 7,2 C 73 % 95 % 74 % 78 % 87 % 1014,3 hPa 0,0 l/m 2,6 km/h (1 Bft) S 180 5,4 C 6,1 C 4,1 km/h (1 Bft)
20.04.2021 07:34 8,8 C 6,0 C 6,9 C 8,4 C 7,2 C 73 % 95 % 73 % 78 % 87 % 1014,3 hPa 0,0 l/m 2,9 km/h (1 Bft) S-SW 202 5,3 C 6,0 C 4,1 km/h (1 Bft)
20.04.2021 07:32 8,8 C 6,0 C 6,9 C 8,4 C 7,2 C 73 % 95 % 74 % 78 % 87 % 1014,3 hPa 0,0 l/m 3,1 km/h (1 Bft) W 270 5,3 C 6,0 C 3,9 km/h (1 Bft)
20.04.2021 07:30 8,8 C 6,0 C 6,9 C 8,4 C 7,2 C 73 % 95 % 74 % 78 % 87 % 1014,3 hPa 0,0 l/m 3,1 km/h (1 Bft) W 270 5,3 C 6,0 C 3,6 km/h (1 Bft)
20.04.2021 07:28 8,8 C 6,0 C 6,9 C 8,4 C 7,2 C 73 % 95 % 74 % 78 % 87 % 1014,3 hPa 0,0 l/m 2,6 km/h (1 Bft) W 270 5,3 C 6,0 C 8,0 km/h (2 Bft)
20.04.2021 07:26 8,9 C 6,0 C 6,9 C 8,4 C 7,2 C 73 % 95 % 74 % 78 % 87 % 1014,3 hPa 0,0 l/m 2,3 km/h (1 Bft) W-SW 247 5,3 C 6,0 C 7,5 km/h (2 Bft)
20.04.2021 07:24 8,8 C 6,0 C 6,9 C 8,4 C 7,2 C 73 % 95 % 73 % 78 % 87 % 1014,3 hPa 0,0 l/m 1,9 km/h (1 Bft) W-SW 247 5,3 C 6,0 C 7,7 km/h (2 Bft)
20.04.2021 07:22 8,9 C 6,0 C 6,9 C 8,4 C 7,2 C 73 % 95 % 73 % 78 % 87 % 1014,3 hPa 0,0 l/m 1,1 km/h (1 Bft) W-SW 247 5,3 C 6,0 C 7,2 km/h (2 Bft)
20.04.2021 07:20 8,8 C 6,0 C 6,9 C 8,4 C 7,2 C 73 % 95 % 73 % 78 % 87 % 1014,1 hPa 0,0 l/m 0,8 km/h (0 Bft) NW 315 5,3 C 6,0 C 3,4 km/h (1 Bft)
20.04.2021 07:18 8,8 C 6,0 C 6,9 C 8,4 C 7,2 C 73 % 95 % 73 % 78 % 87 % 1014,1 hPa 0,0 l/m 0,6 km/h (0 Bft) NW 315 5,3 C 6,0 C 0,0 km/h (0 Bft)
20.04.2021 07:16 8,8 C 6,0 C 6,9 C 8,4 C 7,2 C 73 % 95 % 73 % 78 % 87 % 1014,1 hPa 0,0 l/m 0,6 km/h (0 Bft) W-NW 292 5,3 C 6,0 C 2,9 km/h (1 Bft)
20.04.2021 07:14 8,8 C 6,0 C 6,9 C 8,4 C 7,2 C 73 % 95 % 73 % 78 % 87 % 1014,1 hPa 0,0 l/m 0,3 km/h (0 Bft) W 270 5,3 C 6,0 C 2,9 km/h (1 Bft)
20.04.2021 07:12 8,8 C 6,0 C 6,9 C 8,4 C 7,2 C 73 % 95 % 73 % 78 % 87 % 1014,1 hPa 0,0 l/m 0,3 km/h (0 Bft) O-NO 67 5,3 C 6,0 C 0,0 km/h (0 Bft)
20.04.2021 07:10 8,9 C 6,0 C 6,9 C 8,4 C 7,2 C 73 % 95 % 73 % 78 % 87 % 1014,1 hPa 0,0 l/m 0,3 km/h (0 Bft) O 90 5,3 C 6,0 C 0,0 km/h (0 Bft)
20.04.2021 07:08 8,9 C 6,0 C 6,9 C 8,4 C 7,2 C 73 % 95 % 73 % 78 % 87 % 1014,1 hPa 0,0 l/m 0,2 km/h (0 Bft) NW 315 5,3 C 6,0 C 0,0 km/h (0 Bft)
20.04.2021 07:06 8,9 C 6,0 C 6,9 C 8,4 C 7,2 C 73 % 95 % 73 % 78 % 87 % 1014,1 hPa 0,0 l/m 0,3 km/h (0 Bft) W 270 5,3 C 6,0 C 0,0 km/h (0 Bft)
20.04.2021 07:04 8,9 C 6,0 C 6,9 C 8,4 C 7,2 C 73 % 95 % 73 % 78 % 87 % 1014,1 hPa 0,0 l/m 0,5 km/h (0 Bft) SW 225 5,3 C 6,0 C 0,0 km/h (0 Bft)
20.04.2021 07:02 8,8 C 6,0 C 6,9 C 8,4 C 7,2 C 73 % 95 % 73 % 78 % 87 % 1014,1 hPa 0,0 l/m 0,6 km/h (0 Bft) W-SW 247 5,3 C 6,0 C 4,1 km/h (1 Bft)
20.04.2021 07:00 8,8 C 6,0 C 6,9 C 8,4 C 7,2 C 73 % 95 % 73 % 78 % 87 % 1013,8 hPa 0,0 l/m 0,8 km/h (0 Bft) S-SO 157 5,3 C 6,0 C 0,0 km/h (0 Bft)
20.04.2021 06:58 8,8 C 6,0 C 6,9 C 8,4 C 7,2 C 73 % 95 % 73 % 78 % 87 % 1013,8 hPa 0,0 l/m 1,3 km/h (1 Bft) W 270 5,3 C 6,0 C 0,0 km/h (0 Bft)
20.04.2021 06:56 8,8 C 6,0 C 6,9 C 8,4 C 7,2 C 73 % 95 % 73 % 78 % 87 % 1013,8 hPa 0,0 l/m 2,1 km/h (1 Bft) NW 315 5,3 C 6,0 C 5,1 km/h (1 Bft)
20.04.2021 06:54 8,8 C 6,0 C 6,9 C 8,4 C 7,2 C 73 % 95 % 73 % 78 % 87 % 1013,8 hPa 0,0 l/m 2,3 km/h (1 Bft) W-SW 247 5,3 C 6,0 C 0,0 km/h (0 Bft)
20.04.2021 06:52 8,8 C 6,0 C 6,9 C 8,4 C 7,2 C 73 % 95 % 73 % 78 % 87 % 1013,8 hPa 0,0 l/m 2,7 km/h (1 Bft) W 270 5,3 C 6,0 C 3,4 km/h (1 Bft)
20.04.2021 06:50 8,8 C 5,9 C 6,9 C 8,4 C 7,2 C 73 % 96 % 73 % 78 % 87 % 1013,8 hPa 0,0 l/m 3,4 km/h (1 Bft) W 270 5,3 C 5,9 C 4,8 km/h (1 Bft)
20.04.2021 06:48 8,8 C 5,9 C 6,9 C 8,4 C 7,2 C 73 % 96 % 73 % 78 % 87 % 1013,8 hPa 0,0 l/m 3,4 km/h (1 Bft) W-SW 247 5,3 C 5,9 C 3,6 km/h (1 Bft)
20.04.2021 06:46 8,8 C 5,9 C 6,9 C 8,4 C 7,2 C 73 % 96 % 73 % 78 % 87 % 1013,8 hPa 0,0 l/m 3,5 km/h (1 Bft) S 180 5,3 C 5,9 C 4,8 km/h (1 Bft)
20.04.2021 06:44 8,8 C 5,9 C 6,9 C 8,4 C 7,2 C 73 % 96 % 73 % 78 % 87 % 1013,8 hPa 0,0 l/m 3,5 km/h (1 Bft) W 270 5,3 C 5,9 C 5,8 km/h (2 Bft)
20.04.2021 06:42 8,8 C 5,9 C 6,9 C 8,4 C 7,2 C 73 % 96 % 73 % 78 % 87 % 1013,8 hPa 0,0 l/m 3,5 km/h (1 Bft) W 270 5,3 C 5,9 C 5,3 km/h (1 Bft)
20.04.2021 06:40 8,8 C 5,9 C 6,9 C 8,4 C 7,2 C 73 % 96 % 73 % 78 % 87 % 1013,6 hPa 0,0 l/m 4,0 km/h (1 Bft) W 270 5,3 C 5,9 C 5,8 km/h (2 Bft)
20.04.2021 06:38 8,8 C 5,9 C 6,9 C 8,4 C 7,2 C 73 % 96 % 73 % 78 % 87 % 1013,6 hPa 0,0 l/m 4,5 km/h (1 Bft) W 270 5,3 C 5,9 C 6,5 km/h (2 Bft)
20.04.2021 06:36 8,8 C 5,9 C 6,9 C 8,4 C 7,2 C 73 % 96 % 73 % 78 % 87 % 1013,6 hPa 0,0 l/m 5,1 km/h (1 Bft) NW 315 5,3 C 5,9 C 7,5 km/h (2 Bft)
20.04.2021 06:34 8,8 C 5,9 C 6,9 C 8,4 C 7,2 C 73 % 96 % 73 % 78 % 87 % 1013,6 hPa 0,0 l/m 5,6 km/h (1 Bft) NW 315 5,3 C 5,9 C 4,6 km/h (1 Bft)
20.04.2021 06:32 8,8 C 5,9 C 6,9 C 8,4 C 7,2 C 73 % 96 % 73 % 78 % 87 % 1013,6 hPa 0,0 l/m 6,3 km/h (2 Bft) N-NW 337 5,3 C 5,9 C 9,2 km/h (2 Bft)
20.04.2021 06:30 8,9 C 5,9 C 6,9 C 8,4 C 7,2 C 73 % 96 % 73 % 78 % 87 % 1013,6 hPa 0,0 l/m 6,3 km/h (2 Bft) W 270 5,3 C 5,9 C 13,8 km/h (3 Bft)
20.04.2021 06:28 8,8 C 5,9 C 6,9 C 8,4 C 7,2 C 73 % 96 % 73 % 78 % 87 % 1013,6 hPa 0,0 l/m 6,1 km/h (2 Bft) W-NW 292 5,3 C 5,9 C 10,1 km/h (2 Bft)
20.04.2021 06:26 8,8 C 5,9 C 6,9 C 8,4 C 7,2 C 73 % 96 % 73 % 78 % 87 % 1013,6 hPa 0,0 l/m 6,0 km/h (2 Bft) W-NW 292 5,3 C 5,9 C 14,5 km/h (3 Bft)
20.04.2021 06:24 8,8 C 5,9 C 6,9 C 8,4 C 7,2 C 73 % 96 % 73 % 78 % 87 % 1013,6 hPa 0,0 l/m 5,6 km/h (1 Bft) NW 315 5,3 C 5,9 C 16,7 km/h (3 Bft)
20.04.2021 06:22 8,8 C 5,9 C 6,9 C 8,4 C 7,2 C 73 % 96 % 73 % 78 % 87 % 1013,6 hPa 0,0 l/m 5,1 km/h (1 Bft) W 270 5,3 C 5,9 C 10,1 km/h (2 Bft)
20.04.2021 06:20 8,8 C 5,8 C 6,9 C 8,4 C 7,2 C 73 % 96 % 73 % 78 % 87 % 1013,6 hPa 0,0 l/m 5,3 km/h (1 Bft) O 90 5,2 C 5,8 C 8,9 km/h (2 Bft)
20.04.2021 06:18 8,9 C 5,9 C 6,9 C 8,4 C 7,2 C 73 % 96 % 73 % 78 % 87 % 1013,6 hPa 0,0 l/m 5,3 km/h (1 Bft) W-SW 247 5,3 C 5,9 C 8,0 km/h (2 Bft)
20.04.2021 06:16 8,8 C 5,9 C 6,9 C 8,4 C 7,2 C 73 % 96 % 73 % 78 % 87 % 1013,6 hPa 0,0 l/m 5,6 km/h (1 Bft) SW 225 5,3 C 5,9 C 8,4 km/h (2 Bft)
20.04.2021 06:14 8,8 C 5,9 C 6,9 C 8,4 C 7,2 C 73 % 96 % 73 % 78 % 87 % 1013,6 hPa 0,0 l/m 5,6 km/h (1 Bft) W-SW 247 5,3 C 5,9 C 12,3 km/h (3 Bft)
20.04.2021 06:12 8,8 C 5,8 C 6,9 C 8,4 C 7,2 C 73 % 96 % 73 % 78 % 87 % 1013,6 hPa 0,0 l/m 3,7 km/h (1 Bft) W-SW 247 5,2 C 5,8 C 8,7 km/h (2 Bft)
20.04.2021 06:10 8,8 C 5,8 C 6,9 C 8,4 C 7,2 C 73 % 96 % 73 % 78 % 87 % 1013,6 hPa 0,0 l/m 3,7 km/h (1 Bft) W-SW 247 5,2 C 5,8 C 8,7 km/h (2 Bft)
20.04.2021 06:08 8,8 C 5,8 C 6,9 C 8,4 C 7,2 C 73 % 96 % 73 % 78 % 87 % 1013,6 hPa 0,0 l/m 3,7 km/h (1 Bft) W-SW 247 5,2 C 5,8 C 8,7 km/h (2 Bft)
20.04.2021 06:06 8,8 C 5,8 C 6,9 C 8,4 C 7,2 C 73 % 96 % 73 % 78 % 87 % 1013,6 hPa 0,0 l/m 3,7 km/h (1 Bft) W-SW 247 5,2 C 5,8 C 8,7 km/h (2 Bft)
20.04.2021 06:04 8,8 C 5,8 C 6,9 C 8,4 C 7,2 C 73 % 96 % 73 % 78 % 87 % 1013,6 hPa 0,0 l/m 3,7 km/h (1 Bft) W-SW 247 5,2 C 5,8 C 8,7 km/h (2 Bft)
20.04.2021 06:02 8,8 C 5,8 C 6,9 C 8,4 C 7,2 C 73 % 96 % 73 % 78 % 87 % 1013,6 hPa 0,0 l/m 3,7 km/h (1 Bft) W-SW 247 5,2 C 5,8 C 8,7 km/h (2 Bft)
20.04.2021 06:00 8,8 C 5,8 C 6,9 C 8,4 C 7,2 C 73 % 96 % 73 % 78 % 87 % 1013,8 hPa 0,0 l/m 2,7 km/h (1 Bft) W-NW 292 5,2 C 5,8 C 5,8 km/h (2 Bft)
20.04.2021 05:58 8,8 C 5,8 C 6,9 C 8,4 C 7,2 C 73 % 96 % 73 % 78 % 87 % 1013,8 hPa 0,0 l/m 2,6 km/h (1 Bft) NO 45 5,2 C 5,8 C 4,8 km/h (1 Bft)
20.04.2021 05:56 8,8 C 5,8 C 6,9 C 8,4 C 7,2 C 73 % 96 % 73 % 78 % 87 % 1013,8 hPa 0,0 l/m 2,9 km/h (1 Bft) W 270 5,2 C 5,8 C 4,3 km/h (1 Bft)
20.04.2021 05:54 8,8 C 5,8 C 6,9 C 8,4 C 7,2 C 73 % 96 % 73 % 78 % 87 % 1013,8 hPa 0,0 l/m 3,4 km/h (1 Bft) SW 225 5,2 C 5,8 C 9,7 km/h (2 Bft)
20.04.2021 05:52 8,8 C 5,8 C 6,9 C 8,4 C 7,2 C 73 % 96 % 73 % 78 % 87 % 1013,8 hPa 0,0 l/m 4,0 km/h (1 Bft) W-SW 247 5,2 C 5,8 C 6,3 km/h (2 Bft)
20.04.2021 05:50 8,8 C 5,8 C 6,9 C 8,4 C 7,2 C 73 % 96 % 73 % 78 % 87 % 1013,8 hPa 0,0 l/m 4,5 km/h (1 Bft) NW 315 5,2 C 5,8 C 3,9 km/h (1 Bft)
20.04.2021 05:48 8,8 C 5,8 C 6,9 C 8,4 C 7,2 C 73 % 96 % 73 % 78 % 87 % 1013,8 hPa 0,0 l/m 5,0 km/h (1 Bft) W-SW 247 5,2 C 5,8 C 3,6 km/h (1 Bft)
20.04.2021 05:46 8,8 C 5,8 C 6,9 C 8,4 C 7,2 C 73 % 96 % 73 % 78 % 87 % 1013,8 hPa 0,0 l/m 5,5 km/h (1 Bft) W 270 5,2 C 5,8 C 9,7 km/h (2 Bft)
20.04.2021 05:44 8,8 C 5,8 C 6,9 C 8,4 C 7,2 C 73 % 95 % 73 % 78 % 87 % 1013,8 hPa 0,0 l/m 5,5 km/h (1 Bft) W 270 5,1 C 5,8 C 6,5 km/h (2 Bft)
20.04.2021 05:42 8,8 C 5,8 C 6,9 C 8,4 C 7,2 C 73 % 95 % 73 % 78 % 87 % 1013,8 hPa 0,0 l/m 5,1 km/h (1 Bft) NW 315 5,1 C 5,8 C 14,7 km/h (3 Bft)
20.04.2021 05:40 8,8 C 5,8 C 6,9 C 8,4 C 7,2 C 73 % 95 % 73 % 78 % 87 % 1013,9 hPa 0,0 l/m 5,0 km/h (1 Bft) W-SW 247 5,1 C 5,8 C 9,2 km/h (2 Bft)
20.04.2021 05:38 8,8 C 5,8 C 6,9 C 8,4 C 7,3 C 73 % 95 % 73 % 78 % 87 % 1013,9 hPa 0,0 l/m 4,8 km/h (1 Bft) W 270 5,1 C 5,8 C 6,8 km/h (2 Bft)
20.04.2021 05:36 8,8 C 5,8 C 6,9 C 8,4 C 7,2 C 73 % 95 % 73 % 78 % 87 % 1013,9 hPa 0,0 l/m 4,5 km/h (1 Bft) SW 225 5,1 C 5,8 C 9,2 km/h (2 Bft)
20.04.2021 05:34 8,8 C 5,8 C 6,9 C 8,4 C 7,2 C 73 % 95 % 73 % 78 % 87 % 1013,9 hPa 0,0 l/m 4,3 km/h (1 Bft) W 270 5,1 C 5,8 C 11,8 km/h (2 Bft)
20.04.2021 05:32 8,8 C 5,8 C 6,9 C 8,4 C 7,3 C 73 % 95 % 73 % 78 % 87 % 1013,9 hPa 0,1 l/m 3,9 km/h (1 Bft) W-NW 292 5,1 C 5,8 C 7,5 km/h (2 Bft)
20.04.2021 05:30 8,8 C 5,8 C 6,9 C 8,4 C 7,3 C 73 % 95 % 73 % 78 % 87 % 1013,9 hPa 0,0 l/m 3,2 km/h (1 Bft) W-SW 247 5,1 C 5,8 C 8,4 km/h (2 Bft)
20.04.2021 05:28 8,8 C 5,8 C 6,9 C 8,4 C 7,2 C 73 % 95 % 73 % 78 % 87 % 1013,9 hPa 0,0 l/m 2,6 km/h (1 Bft) SW 225 5,1 C 5,8 C 9,2 km/h (2 Bft)
20.04.2021 05:26 8,8 C 5,8 C 6,9 C 8,4 C 7,3 C 73 % 95 % 73 % 78 % 87 % 1013,9 hPa 0,0 l/m 2,1 km/h (1 Bft) W-SW 247 5,1 C 5,8 C 7,2 km/h (2 Bft)
20.04.2021 05:24 8,8 C 5,8 C 6,9 C 8,4 C 7,2 C 73 % 95 % 73 % 78 % 87 % 1013,9 hPa 0,0 l/m 1,6 km/h (1 Bft) NW 315 5,1 C 5,8 C 5,6 km/h (1 Bft)
20.04.2021 05:22 8,8 C 5,8 C 6,9 C 8,4 C 7,3 C 73 % 95 % 73 % 78 % 87 % 1013,9 hPa 0,0 l/m 1,6 km/h (1 Bft) S 180 5,1 C 5,8 C 3,4 km/h (1 Bft)
20.04.2021 05:20 8,8 C 5,8 C 6,9 C 8,4 C 7,3 C 73 % 95 % 73 % 78 % 87 % 1013,8 hPa 0,0 l/m 2,1 km/h (1 Bft) SO 135 5,1 C 5,8 C 0,0 km/h (0 Bft)
20.04.2021 05:18 8,8 C 5,8 C 6,9 C 8,4 C 7,3 C 73 % 95 % 73 % 78 % 87 % 1013,8 hPa 0,0 l/m 2,7 km/h (1 Bft) SO 135 5,1 C 5,8 C 3,9 km/h (1 Bft)
20.04.2021 05:16 8,8 C 5,8 C 6,9 C 8,4 C 7,3 C 73 % 95 % 73 % 78 % 87 % 1013,8 hPa 0,0 l/m 2,9 km/h (1 Bft) W-NW 292 5,1 C 5,8 C 3,4 km/h (1 Bft)
20.04.2021 05:14 8,8 C 5,8 C 6,9 C 8,4 C 7,3 C 73 % 95 % 73 % 78 % 87 % 1013,8 hPa 0,0 l/m 3,4 km/h (1 Bft) SW 225 5,1 C 5,8 C 4,6 km/h (1 Bft)
20.04.2021 05:12 8,8 C 5,8 C 6,9 C 8,4 C 7,3 C 73 % 95 % 73 % 78 % 87 % 1013,8 hPa 0,0 l/m 3,9 km/h (1 Bft) NW 315 5,1 C 5,8 C 9,4 km/h (2 Bft)
20.04.2021 05:10 8,8 C 5,8 C 6,9 C 8,4 C 7,3 C 73 % 95 % 73 % 78 % 87 % 1013,8 hPa 0,0 l/m 3,9 km/h (1 Bft) W 270 5,1 C 5,8 C 7,5 km/h (2 Bft)
20.04.2021 05:08 8,8 C 5,8 C 6,9 C 8,4 C 7,3 C 73 % 95 % 73 % 78 % 87 % 1013,8 hPa 0,0 l/m 4,2 km/h (1 Bft) NW 315 5,1 C 5,8 C 6,5 km/h (2 Bft)
20.04.2021 05:06 8,8 C 5,8 C 6,9 C 8,4 C 7,2 C 73 % 95 % 73 % 78 % 87 % 1013,8 hPa 0,0 l/m 5,0 km/h (1 Bft) W 270 5,1 C 5,8 C 5,6 km/h (1 Bft)
20.04.2021 05:04 8,8 C 5,8 C 6,9 C 8,4 C 7,3 C 73 % 95 % 73 % 78 % 87 % 1013,8 hPa 0,0 l/m 5,6 km/h (1 Bft) W 270 5,1 C 5,8 C 8,2 km/h (2 Bft)
20.04.2021 05:02 8,8 C 5,8 C 6,9 C 8,4 C 7,3 C 73 % 95 % 73 % 78 % 87 % 1013,8 hPa 0,0 l/m 5,8 km/h (2 Bft) W-NW 292 5,1 C 5,8 C 9,2 km/h (2 Bft)
20.04.2021 05:00 8,8 C 5,8 C 6,9 C 8,4 C 7,3 C 73 % 95 % 73 % 78 % 87 % 1014,0 hPa 0,0 l/m 6,1 km/h (2 Bft) W 270 5,1 C 5,8 C 13,3 km/h (3 Bft)
20.04.2021 04:58 8,8 C 5,8 C 6,9 C 8,4 C 7,3 C 73 % 95 % 73 % 78 % 87 % 1014,0 hPa 0,0 l/m 6,3 km/h (2 Bft) W-NW 292 5,1 C 5,8 C 12,8 km/h (3 Bft)
20.04.2021 04:56 8,8 C 5,8 C 6,9 C 8,4 C 7,2 C 73 % 95 % 73 % 78 % 87 % 1014,0 hPa 0,0 l/m 5,8 km/h (2 Bft) NW 315 5,1 C 5,8 C 15,7 km/h (3 Bft)
20.04.2021 04:54 8,8 C 5,8 C 6,9 C 8,4 C 7,3 C 73 % 95 % 73 % 78 % 87 % 1014,0 hPa 0,0 l/m 5,3 km/h (1 Bft) W-SW 247 5,1 C 5,8 C 11,1 km/h (2 Bft)
20.04.2021 04:52 8,8 C 5,8 C 6,9 C 8,4 C 7,2 C 73 % 95 % 73 % 78 % 87 % 1014,0 hPa 0,0 l/m 5,0 km/h (1 Bft) O-NO 67 5,1 C 5,8 C 8,2 km/h (2 Bft)
20.04.2021 04:50 8,8 C 5,8 C 6,9 C 8,4 C 7,3 C 73 % 95 % 73 % 78 % 87 % 1014,0 hPa 0,0 l/m 5,3 km/h (1 Bft) NW 315 5,1 C 5,8 C 8,7 km/h (2 Bft)
20.04.2021 04:48 8,8 C 5,8 C 6,9 C 8,4 C 7,3 C 73 % 95 % 73 % 78 % 87 % 1014,0 hPa 0,0 l/m 5,6 km/h (1 Bft) W-SW 247 5,1 C 5,8 C 9,9 km/h (2 Bft)
20.04.2021 04:46 8,8 C 5,8 C 6,9 C 8,4 C 7,2 C 73 % 95 % 73 % 78 % 87 % 1014,0 hPa 0,0 l/m 5,8 km/h (2 Bft) S-SW 202 5,1 C 5,8 C 7,2 km/h (2 Bft)
20.04.2021 04:44 8,8 C 5,9 C 6,9 C 8,4 C 7,2 C 73 % 95 % 73 % 78 % 87 % 1014,0 hPa 0,0 l/m 5,6 km/h (1 Bft) W 270 5,2 C 5,9 C 8,9 km/h (2 Bft)
20.04.2021 04:42 8,8 C 5,9 C 6,9 C 8,4 C 7,2 C 73 % 95 % 73 % 78 % 87 % 1014,0 hPa 0,0 l/m 5,5 km/h (1 Bft) W 270 5,2 C 5,9 C 8,2 km/h (2 Bft)
20.04.2021 04:40 8,8 C 5,8 C 6,9 C 8,4 C 7,2 C 73 % 95 % 73 % 78 % 87 % 1014,1 hPa 0,0 l/m 5,3 km/h (1 Bft) W-SW 247 5,1 C 5,8 C 11,3 km/h (2 Bft)
20.04.2021 04:38 8,8 C 5,8 C 6,9 C 8,4 C 7,2 C 73 % 95 % 73 % 78 % 87 % 1014,1 hPa 0,0 l/m 5,0 km/h (1 Bft) W 270 5,1 C 5,8 C 13,5 km/h (3 Bft)
20.04.2021 04:36 8,8 C 5,8 C 6,9 C 8,4 C 7,2 C 73 % 95 % 73 % 78 % 87 % 1014,1 hPa 0,0 l/m 5,0 km/h (1 Bft) W-NW 292 5,1 C 5,8 C 9,9 km/h (2 Bft)
20.04.2021 04:34 8,8 C 5,8 C 6,9 C 8,4 C 7,2 C 73 % 95 % 73 % 78 % 87 % 1014,1 hPa 0,0 l/m 5,0 km/h (1 Bft) N-NW 337 5,1 C 5,8 C 5,3 km/h (1 Bft)
20.04.2021 04:32 8,8 C 5,8 C 6,9 C 8,4 C 7,2 C 73 % 95 % 73 % 78 % 87 % 1014,1 hPa 0,0 l/m 5,1 km/h (1 Bft) NW 315 5,1 C 5,8 C 8,0 km/h (2 Bft)
20.04.2021 04:30 8,8 C 5,8 C 6,9 C 8,4 C 7,2 C 73 % 95 % 73 % 78 % 87 % 1014,1 hPa 0,0 l/m 5,3 km/h (1 Bft) NW 315 5,1 C 5,8 C 9,2 km/h (2 Bft)
20.04.2021 04:28 8,8 C 5,8 C 6,9 C 8,4 C 7,2 C 73 % 95 % 73 % 78 % 87 % 1014,1 hPa 0,0 l/m 5,1 km/h (1 Bft) NW 315 5,1 C 5,8 C 8,7 km/h (2 Bft)
20.04.2021 04:26 8,8 C 5,8 C 6,9 C 8,4 C 7,2 C 73 % 95 % 73 % 78 % 87 % 1014,1 hPa 0,0 l/m 4,5 km/h (1 Bft) NW 315 5,1 C 5,8 C 7,0 km/h (2 Bft)
20.04.2021 04:24 8,8 C 5,8 C 6,9 C 8,4 C 7,2 C 73 % 95 % 73 % 78 % 87 % 1014,1 hPa 0,0 l/m 4,7 km/h (1 Bft) W 270 5,1 C 5,8 C 15,4 km/h (3 Bft)
20.04.2021 04:22 8,8 C 5,8 C 6,9 C 8,4 C 7,2 C 73 % 95 % 73 % 78 % 87 % 1014,1 hPa 0,0 l/m 4,5 km/h (1 Bft) W 270 5,1 C 5,8 C 5,1 km/h (1 Bft)
20.04.2021 04:20 8,8 C 5,8 C 6,9 C 8,4 C 7,2 C 73 % 95 % 73 % 78 % 87 % 1013,9 hPa 0,0 l/m 4,3 km/h (1 Bft) W 270 5,1 C 5,8 C 7,2 km/h (2 Bft)
20.04.2021 04:18 8,8 C 5,8 C 6,9 C 8,4 C 7,2 C 73 % 95 % 73 % 78 % 87 % 1013,9 hPa 0,0 l/m 4,7 km/h (1 Bft) W 270 5,1 C 5,8 C 10,1 km/h (2 Bft)
20.04.2021 04:16 8,8 C 5,8 C 6,9 C 8,4 C 7,2 C 73 % 95 % 73 % 78 % 87 % 1013,9 hPa 0,0 l/m 4,7 km/h (1 Bft) W-NW 292 5,1 C 5,8 C 8,0 km/h (2 Bft)
20.04.2021 04:14 8,8 C 5,8 C 6,9 C 8,4 C 7,2 C 73 % 95 % 73 % 78 % 87 % 1013,9 hPa 0,0 l/m 5,0 km/h (1 Bft) W 270 5,1 C 5,8 C 10,4 km/h (2 Bft)
20.04.2021 04:12 8,8 C 5,8 C 6,9 C 8,4 C 7,2 C 73 % 95 % 73 % 78 % 87 % 1013,9 hPa 0,0 l/m 5,0 km/h (1 Bft) W-NW 292 5,1 C 5,8 C 9,2 km/h (2 Bft)
20.04.2021 04:10 8,8 C 5,8 C 6,9 C 8,4 C 7,2 C 73 % 95 % 73 % 78 % 87 % 1013,9 hPa 0,0 l/m 4,8 km/h (1 Bft) W-SW 247 5,1 C 5,8 C 10,9 km/h (2 Bft)
20.04.2021 04:08 8,8 C 5,8 C 6,9 C 8,4 C 7,2 C 73 % 95 % 73 % 78 % 87 % 1013,9 hPa 0,0 l/m 4,7 km/h (1 Bft) S-SW 202 5,1 C 5,8 C 11,6 km/h (2 Bft)
20.04.2021 04:06 8,8 C 5,8 C 6,9 C 8,4 C 7,2 C 73 % 95 % 73 % 78 % 87 % 1013,9 hPa 0,0 l/m 4,7 km/h (1 Bft) W 270 5,1 C 5,8 C 6,8 km/h (2 Bft)
20.04.2021 04:04 8,8 C 5,8 C 6,9 C 8,4 C 7,2 C 73 % 95 % 73 % 78 % 87 % 1013,9 hPa 0,0 l/m 4,5 km/h (1 Bft) W 270 5,1 C 5,8 C 12,8 km/h (3 Bft)
20.04.2021 04:02 8,8 C 5,8 C 6,9 C 8,4 C 7,2 C 73 % 95 % 73 % 78 % 87 % 1013,9 hPa 0,0 l/m 4,3 km/h (1 Bft) W-SW 247 5,1 C 5,8 C 5,6 km/h (1 Bft)
20.04.2021 04:00 8,8 C 5,8 C 6,9 C 8,4 C 7,2 C 73 % 94 % 73 % 78 % 87 % 1014,1 hPa 0,0 l/m 4,5 km/h (1 Bft) S-SW 202 4,9 C 5,8 C 7,7 km/h (2 Bft)
20.04.2021 03:58 8,8 C 5,8 C 6,9 C 8,4 C 7,2 C 73 % 94 % 73 % 78 % 87 % 1014,1 hPa 0,0 l/m 4,3 km/h (1 Bft) W 270 4,9 C 5,8 C 13,0 km/h (3 Bft)
20.04.2021 03:56 8,8 C 5,8 C 6,9 C 8,4 C 7,2 C 73 % 94 % 73 % 78 % 87 % 1014,1 hPa 0,0 l/m 4,3 km/h (1 Bft) W-SW 247 4,9 C 5,8 C 9,7 km/h (2 Bft)
20.04.2021 03:54 8,8 C 5,8 C 6,9 C 8,4 C 7,2 C 73 % 94 % 73 % 78 % 87 % 1014,1 hPa 0,0 l/m 4,5 km/h (1 Bft) W 270 4,9 C 5,8 C 5,3 km/h (1 Bft)
20.04.2021 03:52 8,8 C 5,8 C 6,9 C 8,4 C 7,2 C 73 % 94 % 73 % 78 % 87 % 1014,1 hPa 0,0 l/m 4,3 km/h (1 Bft) N-NW 337 4,9 C 5,8 C 8,7 km/h (2 Bft)
20.04.2021 03:50 8,8 C 5,8 C 6,9 C 8,4 C 7,2 C 73 % 94 % 73 % 78 % 87 % 1014,1 hPa 0,0 l/m 4,2 km/h (1 Bft) W 270 4,9 C 5,8 C 5,8 km/h (2 Bft)
20.04.2021 03:48 8,8 C 5,8 C 6,9 C 8,4 C 7,2 C 73 % 94 % 73 % 78 % 87 % 1014,1 hPa 0,0 l/m 4,0 km/h (1 Bft) W 270 4,9 C 5,8 C 6,8 km/h (2 Bft)
20.04.2021 03:46 8,8 C 5,8 C 6,9 C 8,4 C 7,3 C 73 % 94 % 73 % 78 % 87 % 1014,1 hPa 0,0 l/m 3,9 km/h (1 Bft) W-SW 247 4,9 C 5,8 C 7,2 km/h (2 Bft)
20.04.2021 03:44 8,8 C 5,8 C 6,9 C 8,4 C 7,3 C 73 % 94 % 73 % 78 % 87 % 1014,1 hPa 0,0 l/m 3,9 km/h (1 Bft) SW 225 4,9 C 5,8 C 8,9 km/h (2 Bft)
20.04.2021 03:42 8,8 C 5,8 C 6,9 C 8,3 C 7,2 C 73 % 94 % 73 % 78 % 87 % 1014,1 hPa 0,0 l/m 3,7 km/h (1 Bft) W 270 4,9 C 5,8 C 4,8 km/h (1 Bft)
20.04.2021 03:40 8,8 C 5,8 C 6,9 C 8,4 C 7,3 C 73 % 94 % 73 % 78 % 87 % 1014,0 hPa 0,0 l/m 3,7 km/h (1 Bft) W-SW 247 4,9 C 5,8 C 5,6 km/h (1 Bft)
20.04.2021 03:38 8,8 C 5,8 C 6,9 C 8,4 C 7,3 C 73 % 94 % 73 % 78 % 87 % 1014,0 hPa 0,0 l/m 3,9 km/h (1 Bft) W-NW 292 4,9 C 5,8 C 6,5 km/h (2 Bft)
20.04.2021 03:36 8,8 C 5,8 C 6,9 C 8,4 C 7,3 C 73 % 94 % 73 % 78 % 87 % 1014,0 hPa 0,0 l/m 4,0 km/h (1 Bft) SW 225 4,9 C 5,8 C 10,4 km/h (2 Bft)
20.04.2021 03:34 8,8 C 5,9 C 6,9 C 8,3 C 7,3 C 73 % 94 % 73 % 78 % 86 % 1014,0 hPa 0,0 l/m 4,0 km/h (1 Bft) W-NW 292 5,0 C 5,9 C 7,5 km/h (2 Bft)
20.04.2021 03:32 8,8 C 5,9 C 6,9 C 8,4 C 7,2 C 73 % 94 % 73 % 78 % 87 % 1014,0 hPa 0,0 l/m 3,7 km/h (1 Bft) W-SW 247 5,0 C 5,9 C 6,0 km/h (2 Bft)
20.04.2021 03:30 8,8 C 5,9 C 6,9 C 8,4 C 7,3 C 73 % 94 % 73 % 78 % 86 % 1014,0 hPa 0,0 l/m 3,7 km/h (1 Bft) W-SW 247 5,0 C 5,9 C 4,1 km/h (1 Bft)
20.04.2021 03:28 8,8 C 5,9 C 6,9 C 8,4 C 7,3 C 72 % 94 % 73 % 77 % 86 % 1014,0 hPa 0,0 l/m 3,4 km/h (1 Bft) W 270 5,0 C 5,9 C 7,5 km/h (2 Bft)
20.04.2021 03:26 8,8 C 5,9 C 6,9 C 8,4 C 7,3 C 73 % 94 % 73 % 77 % 86 % 1014,0 hPa 0,0 l/m 3,1 km/h (1 Bft) W 270 5,0 C 5,9 C 5,3 km/h (1 Bft)
20.04.2021 03:24 8,8 C 5,9 C 6,9 C 8,4 C 7,3 C 72 % 94 % 73 % 77 % 86 % 1014,0 hPa 0,0 l/m 2,9 km/h (1 Bft) W-SW 247 5,0 C 5,9 C 10,6 km/h (2 Bft)
20.04.2021 03:22 8,8 C 5,9 C 6,9 C 8,4 C 7,3 C 72 % 94 % 73 % 77 % 86 % 1014,0 hPa 0,0 l/m 2,7 km/h (1 Bft) W 270 5,0 C 5,9 C 5,1 km/h (1 Bft)
20.04.2021 03:20 8,8 C 5,9 C 6,9 C 8,4 C 7,3 C 73 % 94 % 73 % 77 % 86 % 1014,2 hPa 0,0 l/m 2,7 km/h (1 Bft) W-SW 247 5,0 C 5,9 C 5,8 km/h (2 Bft)
20.04.2021 03:18 8,9 C 5,9 C 6,9 C 8,4 C 7,3 C 72 % 94 % 73 % 77 % 86 % 1014,2 hPa 0,0 l/m 2,4 km/h (1 Bft) S-SW 202 5,0 C 5,9 C 3,6 km/h (1 Bft)
20.04.2021 03:16 8,8 C 5,9 C 6,9 C 8,4 C 7,3 C 73 % 94 % 73 % 77 % 86 % 1014,2 hPa 0,0 l/m 2,4 km/h (1 Bft) W-SW 247 5,0 C 5,9 C 6,8 km/h (2 Bft)
20.04.2021 03:14 8,8 C 5,9 C 6,9 C 8,4 C 7,3 C 73 % 94 % 73 % 77 % 86 % 1014,2 hPa 0,0 l/m 2,7 km/h (1 Bft) W-SW 247 5,0 C 5,9 C 6,3 km/h (2 Bft)
20.04.2021 03:12 8,8 C 5,9 C 6,9 C 8,4 C 7,3 C 73 % 94 % 73 % 77 % 86 % 1014,2 hPa 0,0 l/m 4,2 km/h (1 Bft) W-SW 247 5,0 C 5,9 C 4,8 km/h (1 Bft)
20.04.2021 03:10 8,8 C 5,9 C 6,9 C 8,4 C 7,3 C 73 % 94 % 73 % 77 % 86 % 1014,2 hPa 0,0 l/m 4,2 km/h (1 Bft) W-SW 247 5,0 C 5,9 C 4,8 km/h (1 Bft)
20.04.2021 03:08 8,8 C 5,9 C 6,9 C 8,4 C 7,3 C 73 % 94 % 73 % 77 % 86 % 1014,2 hPa 0,0 l/m 4,2 km/h (1 Bft) W-SW 247 5,0 C 5,9 C 4,8 km/h (1 Bft)
20.04.2021 03:06 8,8 C 5,9 C 6,9 C 8,4 C 7,3 C 73 % 94 % 73 % 77 % 86 % 1014,2 hPa 0,0 l/m 4,2 km/h (1 Bft) W-SW 247 5,0 C 5,9 C 4,8 km/h (1 Bft)
20.04.2021 03:04 8,8 C 5,9 C 6,9 C 8,4 C 7,3 C 73 % 94 % 73 % 77 % 86 % 1014,2 hPa 0,0 l/m 4,2 km/h (1 Bft) W-SW 247 5,0 C 5,9 C 4,8 km/h (1 Bft)
20.04.2021 03:02 8,9 C 5,9 C 6,9 C 8,4 C 7,3 C 72 % 94 % 73 % 77 % 86 % 1014,2 hPa 0,0 l/m 4,2 km/h (1 Bft) W-SW 247 5,0 C 5,9 C 4,8 km/h (1 Bft)
20.04.2021 03:00 8,8 C 5,9 C 6,9 C 8,3 C 7,3 C 73 % 94 % 73 % 78 % 86 % 1014,4 hPa 0,0 l/m 4,2 km/h (1 Bft) W-SW 247 5,0 C 5,9 C 4,8 km/h (1 Bft)
20.04.2021 02:58 8,8 C 5,9 C 6,9 C 8,4 C 7,3 C 73 % 94 % 73 % 77 % 86 % 1014,4 hPa 0,0 l/m 3,9 km/h (1 Bft) W-NW 292 5,0 C 5,9 C 10,6 km/h (2 Bft)
20.04.2021 02:56 8,9 C 5,9 C 6,9 C 8,4 C 7,3 C 73 % 94 % 73 % 78 % 86 % 1014,4 hPa 0,0 l/m 3,9 km/h (1 Bft) S-SO 157 5,0 C 5,9 C 6,5 km/h (2 Bft)
20.04.2021 02:54 8,8 C 5,9 C 6,9 C 8,4 C 7,3 C 73 % 94 % 73 % 78 % 86 % 1014,4 hPa 0,0 l/m 3,4 km/h (1 Bft) W-SW 247 5,0 C 5,9 C 7,2 km/h (2 Bft)
20.04.2021 02:52 8,8 C 5,9 C 6,9 C 8,3 C 7,3 C 73 % 94 % 73 % 77 % 86 % 1014,4 hPa 0,0 l/m 3,1 km/h (1 Bft) S-SW 202 5,0 C 5,9 C 8,0 km/h (2 Bft)
20.04.2021 02:50 8,9 C 5,9 C 6,9 C 8,4 C 7,3 C 72 % 94 % 73 % 77 % 86 % 1014,4 hPa 0,0 l/m 2,9 km/h (1 Bft) W 270 5,0 C 5,9 C 5,8 km/h (2 Bft)
20.04.2021 02:48 8,8 C 5,9 C 6,9 C 8,3 C 7,3 C 73 % 94 % 73 % 78 % 86 % 1014,4 hPa 0,0 l/m 2,9 km/h (1 Bft) W-SW 247 5,0 C 5,9 C 3,6 km/h (1 Bft)
20.04.2021 02:46 8,9 C 5,9 C 6,9 C 8,3 C 7,4 C 72 % 94 % 73 % 78 % 86 % 1014,4 hPa 0,0 l/m 2,9 km/h (1 Bft) W-SW 247 5,0 C 5,9 C 4,1 km/h (1 Bft)
20.04.2021 02:44 8,8 C 5,9 C 6,9 C 8,3 C 7,4 C 73 % 94 % 73 % 78 % 86 % 1014,4 hPa 0,0 l/m 3,4 km/h (1 Bft) W-SW 247 5,0 C 5,9 C 5,3 km/h (1 Bft)
20.04.2021 02:42 8,8 C 5,9 C 6,9 C 8,3 C 7,3 C 73 % 94 % 73 % 77 % 86 % 1014,4 hPa 0,0 l/m 3,7 km/h (1 Bft) W-SW 247 5,0 C 5,9 C 7,2 km/h (2 Bft)
20.04.2021 02:40 8,8 C 6,0 C 6,9 C 8,3 C 7,3 C 73 % 94 % 73 % 77 % 86 % 1014,7 hPa 0,0 l/m 3,9 km/h (1 Bft) O-SO 112 5,1 C 6,0 C 4,3 km/h (1 Bft)
20.04.2021 02:38 9,0 C 6,0 C 6,9 C 8,3 C 7,3 C 73 % 94 % 73 % 77 % 86 % 1014,7 hPa 0,0 l/m 4,2 km/h (1 Bft) W 270 5,1 C 6,0 C 4,1 km/h (1 Bft)
20.04.2021 02:36 9,0 C 6,0 C 6,9 C 8,4 C 7,3 C 73 % 94 % 73 % 78 % 86 % 1014,7 hPa 0,0 l/m 4,7 km/h (1 Bft) NW 315 5,1 C 6,0 C 5,8 km/h (2 Bft)
20.04.2021 02:34 9,0 C 6,0 C 6,9 C 8,4 C 7,3 C 73 % 94 % 73 % 78 % 86 % 1014,7 hPa 0,0 l/m 5,3 km/h (1 Bft) W 270 5,1 C 6,0 C 10,9 km/h (2 Bft)
20.04.2021 02:32 9,0 C 6,0 C 6,9 C 8,3 C 7,3 C 73 % 94 % 73 % 77 % 86 % 1014,7 hPa 0,0 l/m 5,3 km/h (1 Bft) W 270 5,1 C 6,0 C 8,2 km/h (2 Bft)
20.04.2021 02:30 9,0 C 6,0 C 6,9 C 8,3 C 7,4 C 73 % 94 % 73 % 77 % 86 % 1014,7 hPa 0,0 l/m 5,6 km/h (1 Bft) W-NW 292 5,1 C 6,0 C 7,7 km/h (2 Bft)
20.04.2021 02:28 9,0 C 6,0 C 6,9 C 8,3 C 7,5 C 73 % 94 % 73 % 77 % 86 % 1014,7 hPa 0,0 l/m 6,1 km/h (2 Bft) W 270 5,1 C 6,0 C 8,7 km/h (2 Bft)
20.04.2021 02:26 9,0 C 6,0 C 6,9 C 8,3 C 7,5 C 73 % 94 % 73 % 77 % 86 % 1014,7 hPa 0,0 l/m 6,1 km/h (2 Bft) W-NW 292 5,1 C 6,0 C 9,7 km/h (2 Bft)
20.04.2021 02:24 9,0 C 6,0 C 6,9 C 8,3 C 7,5 C 73 % 94 % 73 % 77 % 86 % 1014,7 hPa 0,0 l/m 6,0 km/h (2 Bft) W-NW 292 5,1 C 6,0 C 15,9 km/h (3 Bft)
20.04.2021 02:22 9,0 C 6,0 C 6,9 C 8,4 C 7,4 C 73 % 93 % 73 % 77 % 86 % 1014,7 hPa 0,0 l/m 5,8 km/h (2 Bft) W-NW 292 5,0 C 6,0 C 8,7 km/h (2 Bft)
20.04.2021 02:20 9,0 C 6,0 C 6,9 C 8,3 C 7,4 C 72 % 93 % 73 % 77 % 86 % 1014,6 hPa 0,0 l/m 5,8 km/h (2 Bft) NW 315 5,0 C 6,0 C 12,6 km/h (3 Bft)
20.04.2021 02:18 9,0 C 6,0 C 6,9 C 8,3 C 7,4 C 73 % 93 % 73 % 77 % 86 % 1014,6 hPa 0,0 l/m 6,0 km/h (2 Bft) W-NW 292 5,0 C 6,0 C 12,3 km/h (3 Bft)
20.04.2021 02:16 8,9 C 6,0 C 6,9 C 8,4 C 7,5 C 73 % 93 % 73 % 77 % 86 % 1014,6 hPa 0,0 l/m 6,0 km/h (2 Bft) W-NW 292 5,0 C 6,0 C 8,0 km/h (2 Bft)
20.04.2021 02:14 8,9 C 6,0 C 6,9 C 8,3 C 7,5 C 72 % 93 % 73 % 77 % 86 % 1014,6 hPa 0,0 l/m 6,0 km/h (2 Bft) W-NW 292 5,0 C 6,0 C 11,6 km/h (2 Bft)
20.04.2021 02:12 9,1 C 6,0 C 6,9 C 8,3 C 7,4 C 72 % 93 % 73 % 77 % 86 % 1014,6 hPa 0,0 l/m 5,8 km/h (2 Bft) W 270 5,0 C 6,0 C 13,3 km/h (3 Bft)
20.04.2021 02:10 9,1 C 6,0 C 6,9 C 8,3 C 7,4 C 72 % 93 % 73 % 77 % 86 % 1014,6 hPa 0,0 l/m 5,3 km/h (1 Bft) NW 315 5,0 C 6,0 C 7,7 km/h (2 Bft)
20.04.2021 02:08 9,1 C 6,0 C 6,9 C 8,3 C 7,5 C 72 % 93 % 73 % 77 % 86 % 1014,6 hPa 0,1 l/m 4,8 km/h (1 Bft) W 270 5,0 C 6,0 C 12,8 km/h (3 Bft)
20.04.2021 02:06 9,2 C 6,0 C 6,9 C 8,3 C 7,5 C 72 % 93 % 73 % 77 % 86 % 1014,6 hPa 0,0 l/m 4,3 km/h (1 Bft) W-SW 247 5,0 C 6,0 C 9,7 km/h (2 Bft)
20.04.2021 02:04 9,2 C 6,0 C 6,9 C 8,3 C 7,4 C 72 % 93 % 73 % 77 % 86 % 1014,6 hPa 0,0 l/m 3,9 km/h (1 Bft) W-SW 247 5,0 C 6,0 C 8,4 km/h (2 Bft)
20.04.2021 02:02 9,2 C 6,0 C 6,9 C 8,3 C 7,4 C 72 % 93 % 73 % 77 % 86 % 1014,6 hPa 0,0 l/m 3,9 km/h (1 Bft) W-NW 292 5,0 C 6,0 C 9,4 km/h (2 Bft)
20.04.2021 02:00 9,2 C 6,0 C 6,9 C 8,3 C 7,5 C 72 % 93 % 73 % 77 % 86 % 1014,8 hPa 0,0 l/m 3,7 km/h (1 Bft) W-SW 247 5,0 C 6,0 C 7,2 km/h (2 Bft)
20.04.2021 01:58 9,2 C 6,0 C 6,9 C 8,3 C 7,5 C 72 % 93 % 73 % 77 % 86 % 1014,8 hPa 0,0 l/m 3,7 km/h (1 Bft) SW 225 5,0 C 6,0 C 7,0 km/h (2 Bft)
20.04.2021 01:56 9,2 C 6,0 C 6,9 C 8,3 C 7,5 C 72 % 93 % 73 % 77 % 86 % 1014,8 hPa 0,0 l/m 3,9 km/h (1 Bft) SW 225 5,0 C 6,0 C 6,8 km/h (2 Bft)
20.04.2021 01:54 9,2 C 6,0 C 6,9 C 8,3 C 7,5 C 72 % 93 % 73 % 77 % 86 % 1014,8 hPa 0,0 l/m 4,3 km/h (1 Bft) SW 225 5,0 C 6,0 C 5,6 km/h (1 Bft)
20.04.2021 01:52 9,2 C 6,1 C 6,9 C 8,3 C 7,5 C 72 % 93 % 73 % 77 % 86 % 1014,8 hPa 0,0 l/m 4,5 km/h (1 Bft) W 270 5,1 C 6,1 C 8,4 km/h (2 Bft)
20.04.2021 01:50 9,2 C 6,1 C 6,9 C 8,3 C 7,5 C 72 % 93 % 73 % 77 % 86 % 1014,8 hPa 0,0 l/m 4,8 km/h (1 Bft) W 270 5,1 C 6,1 C 4,6 km/h (1 Bft)
20.04.2021 01:48 9,2 C 6,1 C 6,9 C 8,3 C 7,5 C 72 % 93 % 73 % 77 % 86 % 1014,8 hPa 0,0 l/m 5,1 km/h (1 Bft) W-SW 247 5,1 C 6,1 C 7,5 km/h (2 Bft)
20.04.2021 01:46 9,2 C 6,1 C 6,9 C 8,3 C 7,5 C 72 % 93 % 73 % 77 % 86 % 1014,8 hPa 0,0 l/m 5,6 km/h (1 Bft) W 270 5,1 C 6,1 C 7,0 km/h (2 Bft)
20.04.2021 01:44 9,2 C 6,1 C 6,9 C 8,3 C 7,5 C 72 % 93 % 73 % 77 % 86 % 1014,8 hPa 0,0 l/m 5,6 km/h (1 Bft) W-SW 247 5,1 C 6,1 C 6,8 km/h (2 Bft)
20.04.2021 01:42 9,2 C 6,1 C 6,9 C 8,3 C 7,5 C 72 % 93 % 73 % 77 % 86 % 1014,8 hPa 0,0 l/m 6,0 km/h (2 Bft) W 270 5,1 C 6,1 C 8,7 km/h (2 Bft)
20.04.2021 01:40 9,2 C 6,1 C 6,9 C 8,3 C 7,5 C 72 % 93 % 73 % 77 % 86 % 1014,9 hPa 0,0 l/m 5,8 km/h (2 Bft) W 270 5,1 C 6,1 C 9,9 km/h (2 Bft)
20.04.2021 01:38 9,2 C 6,1 C 6,9 C 8,3 C 7,5 C 72 % 93 % 73 % 77 % 86 % 1014,9 hPa 0,0 l/m 5,6 km/h (1 Bft) W-SW 247 5,1 C 6,1 C 9,9 km/h (2 Bft)
20.04.2021 01:36 9,2 C 6,1 C 6,9 C 8,3 C 7,5 C 72 % 93 % 73 % 77 % 86 % 1014,9 hPa 0,0 l/m 5,5 km/h (1 Bft) W 270 5,1 C 6,1 C 11,1 km/h (2 Bft)
20.04.2021 01:34 9,2 C 6,1 C 6,9 C 8,3 C 7,5 C 72 % 93 % 73 % 77 % 86 % 1014,9 hPa 0,0 l/m 5,3 km/h (1 Bft) O 90 5,1 C 6,1 C 11,1 km/h (2 Bft)
20.04.2021 01:32 9,2 C 6,1 C 6,9 C 8,3 C 7,5 C 72 % 92 % 73 % 77 % 86 % 1014,9 hPa 0,0 l/m 5,0 km/h (1 Bft) W-SW 247 4,9 C 6,1 C 12,8 km/h (3 Bft)
20.04.2021 01:30 9,2 C 6,1 C 6,9 C 8,3 C 7,5 C 72 % 92 % 73 % 77 % 86 % 1014,9 hPa 0,0 l/m 5,1 km/h (1 Bft) W 270 4,9 C 6,1 C 13,3 km/h (3 Bft)
20.04.2021 01:28 9,2 C 6,1 C 6,9 C 8,3 C 7,4 C 72 % 92 % 73 % 77 % 86 % 1014,9 hPa 0,0 l/m 5,0 km/h (1 Bft) SW 225 4,9 C 6,1 C 6,0 km/h (2 Bft)
20.04.2021 01:26 9,2 C 6,1 C 6,9 C 8,3 C 7,5 C 72 % 92 % 73 % 77 % 86 % 1014,9 hPa 0,0 l/m 5,3 km/h (1 Bft) W-SW 247 4,9 C 6,1 C 8,9 km/h (2 Bft)
20.04.2021 01:24 9,2 C 6,1 C 6,9 C 8,3 C 7,4 C 72 % 92 % 73 % 77 % 86 % 1014,9 hPa 0,0 l/m 5,3 km/h (1 Bft) W 270 4,9 C 6,1 C 6,5 km/h (2 Bft)
20.04.2021 01:22 9,2 C 6,1 C 6,9 C 8,3 C 7,5 C 72 % 92 % 73 % 77 % 86 % 1014,9 hPa 0,0 l/m 5,5 km/h (1 Bft) SW 225 4,9 C 6,1 C 8,2 km/h (2 Bft)
20.04.2021 01:20 9,2 C 6,1 C 6,9 C 8,3 C 7,5 C 72 % 92 % 73 % 77 % 86 % 1015,1 hPa 0,0 l/m 5,5 km/h (1 Bft) W 270 4,9 C 6,1 C 11,1 km/h (2 Bft)
20.04.2021 01:18 9,2 C 6,1 C 6,9 C 8,3 C 7,5 C 72 % 92 % 73 % 77 % 86 % 1015,1 hPa 0,0 l/m 5,5 km/h (1 Bft) NW 315 4,9 C 6,1 C 8,2 km/h (2 Bft)
20.04.2021 01:16 9,2 C 6,1 C 6,9 C 8,3 C 7,5 C 72 % 92 % 73 % 77 % 86 % 1015,1 hPa 0,0 l/m 5,3 km/h (1 Bft) W-SW 247 4,9 C 6,1 C 12,8 km/h (3 Bft)
20.04.2021 01:14 9,2 C 6,2 C 6,9 C 8,3 C 7,5 C 72 % 92 % 73 % 77 % 86 % 1015,1 hPa 0,0 l/m 5,1 km/h (1 Bft) W-SW 247 5,0 C 6,2 C 9,2 km/h (2 Bft)
20.04.2021 01:12 9,2 C 6,2 C 6,9 C 8,3 C 7,5 C 72 % 92 % 73 % 77 % 86 % 1015,1 hPa 0,0 l/m 4,8 km/h (1 Bft) W-NW 292 5,0 C 6,2 C 12,3 km/h (3 Bft)
20.04.2021 01:10 9,1 C 6,2 C 6,9 C 8,3 C 7,5 C 72 % 92 % 73 % 77 % 86 % 1015,1 hPa 0,0 l/m 4,5 km/h (1 Bft) SW 225 5,0 C 6,2 C 8,7 km/h (2 Bft)
20.04.2021 01:08 9,1 C 6,2 C 6,8 C 8,3 C 7,5 C 72 % 92 % 73 % 77 % 86 % 1015,1 hPa 0,0 l/m 4,2 km/h (1 Bft) W-NW 292 5,0 C 6,2 C 6,5 km/h (2 Bft)
20.04.2021 01:06 9,1 C 6,2 C 6,9 C 8,3 C 7,5 C 72 % 92 % 73 % 77 % 86 % 1015,1 hPa 0,0 l/m 4,0 km/h (1 Bft) SW 225 5,0 C 6,2 C 7,5 km/h (2 Bft)
20.04.2021 01:04 9,1 C 6,2 C 6,9 C 8,3 C 7,5 C 72 % 92 % 73 % 77 % 86 % 1015,1 hPa 0,0 l/m 4,2 km/h (1 Bft) W 270 5,0 C 6,2 C 8,4 km/h (2 Bft)
20.04.2021 01:02 9,3 C 6,2 C 6,9 C 8,3 C 7,5 C 72 % 92 % 73 % 77 % 86 % 1015,1 hPa 0,0 l/m 4,8 km/h (1 Bft) SW 225 5,0 C 6,2 C 9,4 km/h (2 Bft)
20.04.2021 01:00 9,3 C 6,2 C 6,9 C 8,3 C 7,5 C 72 % 92 % 73 % 77 % 86 % 1015,2 hPa 0,0 l/m 5,0 km/h (1 Bft) W 270 5,0 C 6,2 C 9,4 km/h (2 Bft)
20.04.2021 00:58 9,2 C 6,2 C 6,9 C 8,3 C 7,5 C 72 % 92 % 73 % 77 % 86 % 1015,2 hPa 0,0 l/m 5,1 km/h (1 Bft) SW 225 5,0 C 6,2 C 7,0 km/h (2 Bft)
20.04.2021 00:56 9,3 C 6,2 C 6,9 C 8,3 C 7,5 C 72 % 92 % 73 % 77 % 86 % 1015,2 hPa 0,0 l/m 5,6 km/h (1 Bft) SW 225 5,0 C 6,2 C 6,8 km/h (2 Bft)
20.04.2021 00:54 9,3 C 6,2 C 6,9 C 8,3 C 7,5 C 72 % 92 % 73 % 77 % 86 % 1015,2 hPa 0,0 l/m 6,0 km/h (2 Bft) SW 225 5,0 C 6,2 C 10,6 km/h (2 Bft)
20.04.2021 00:52 9,2 C 6,2 C 6,9 C 8,3 C 7,5 C 72 % 92 % 73 % 77 % 86 % 1015,2 hPa 0,0 l/m 6,0 km/h (2 Bft) W-SW 247 5,0 C 6,2 C 12,1 km/h (2 Bft)
20.04.2021 00:50 9,2 C 6,2 C 6,9 C 8,3 C 7,5 C 72 % 92 % 73 % 77 % 86 % 1015,2 hPa 0,0 l/m 5,8 km/h (2 Bft) NW 315 5,0 C 6,2 C 11,1 km/h (2 Bft)
20.04.2021 00:48 9,2 C 6,2 C 6,9 C 8,3 C 7,5 C 72 % 92 % 73 % 77 % 86 % 1015,2 hPa 0,0 l/m 5,8 km/h (2 Bft) W-SW 247 5,0 C 6,2 C 10,6 km/h (2 Bft)
20.04.2021 00:46 9,2 C 6,3 C 6,9 C 8,3 C 7,5 C 72 % 92 % 73 % 77 % 86 % 1015,2 hPa 0,0 l/m 5,6 km/h (1 Bft) W-NW 292 5,1 C 6,3 C 10,9 km/h (2 Bft)
20.04.2021 00:44 9,2 C 6,3 C 6,9 C 8,3 C 7,5 C 71 % 92 % 73 % 77 % 86 % 1015,2 hPa 0,0 l/m 5,6 km/h (1 Bft) W-SW 247 5,1 C 6,3 C 8,7 km/h (2 Bft)
20.04.2021 00:42 9,2 C 6,3 C 6,8 C 8,3 C 7,5 C 71 % 91 % 73 % 77 % 86 % 1015,2 hPa 0,0 l/m 5,3 km/h (1 Bft) W 270 4,9 C 6,3 C 8,4 km/h (2 Bft)
20.04.2021 00:40 9,4 C 6,3 C 6,8 C 8,3 C 7,5 C 71 % 91 % 73 % 77 % 86 % 1015,4 hPa 0,0 l/m 5,1 km/h (1 Bft) NW 315 4,9 C 6,3 C 11,6 km/h (2 Bft)
20.04.2021 00:38 9,4 C 6,3 C 6,9 C 8,3 C 7,5 C 71 % 91 % 73 % 77 % 86 % 1015,4 hPa 0,0 l/m 5,3 km/h (1 Bft) W-NW 292 4,9 C 6,3 C 9,7 km/h (2 Bft)
20.04.2021 00:36 9,4 C 6,3 C 6,9 C 8,3 C 7,5 C 71 % 91 % 73 % 77 % 86 % 1015,4 hPa 0,0 l/m 5,5 km/h (1 Bft) SW 225 4,9 C 6,3 C 11,6 km/h (2 Bft)
20.04.2021 00:34 9,4 C 6,3 C 6,9 C 8,3 C 7,5 C 71 % 91 % 73 % 77 % 86 % 1015,4 hPa 0,0 l/m 5,6 km/h (1 Bft) W-SW 247 4,9 C 6,3 C 6,0 km/h (2 Bft)
20.04.2021 00:32 9,4 C 6,3 C 6,8 C 8,3 C 7,5 C 71 % 91 % 73 % 77 % 86 % 1015,4 hPa 0,0 l/m 5,8 km/h (2 Bft) SW 225 4,9 C 6,3 C 7,5 km/h (2 Bft)
20.04.2021 00:30 9,3 C 6,3 C 6,8 C 8,3 C 7,5 C 71 % 91 % 73 % 77 % 86 % 1015,4 hPa 0,1 l/m 6,3 km/h (2 Bft) SW 225 4,9 C 6,3 C 13,3 km/h (3 Bft)
20.04.2021 00:28 9,5 C 6,3 C 6,9 C 8,3 C 7,5 C 71 % 91 % 73 % 77 % 86 % 1015,4 hPa 0,0 l/m 6,4 km/h (2 Bft) W 270 4,9 C 6,3 C 13,8 km/h (3 Bft)
20.04.2021 00:26 9,5 C 6,3 C 6,8 C 8,3 C 7,6 C 71 % 91 % 73 % 77 % 86 % 1015,4 hPa 0,0 l/m 6,6 km/h (2 Bft) SW 225 4,9 C 6,2 C 9,4 km/h (2 Bft)
20.04.2021 00:24 9,5 C 6,3 C 6,8 C 8,3 C 7,6 C 71 % 91 % 73 % 77 % 86 % 1015,4 hPa 0,0 l/m 6,6 km/h (2 Bft) W 270 4,9 C 6,2 C 13,0 km/h (3 Bft)
20.04.2021 00:22 9,5 C 6,3 C 6,8 C 8,3 C 7,6 C 71 % 91 % 73 % 77 % 86 % 1015,4 hPa 0,0 l/m 6,6 km/h (2 Bft) W-SW 247 4,9 C 6,2 C 14,0 km/h (3 Bft)
20.04.2021 00:20 9,4 C 6,3 C 6,8 C 8,3 C 7,5 C 71 % 91 % 73 % 77 % 86 % 1015,4 hPa 0,0 l/m 6,9 km/h (2 Bft) W 270 4,9 C 5,9 C 14,2 km/h (3 Bft)
20.04.2021 00:18 9,4 C 6,3 C 6,8 C 8,3 C 7,6 C 71 % 91 % 73 % 77 % 86 % 1015,4 hPa 0,0 l/m 6,8 km/h (2 Bft) W 270 4,9 C 6,0 C 11,1 km/h (2 Bft)
20.04.2021 00:16 9,6 C 6,3 C 6,8 C 8,3 C 7,6 C 71 % 91 % 73 % 77 % 86 % 1015,4 hPa 0,0 l/m 6,8 km/h (2 Bft) W 270 4,9 C 6,0 C 14,0 km/h (3 Bft)
20.04.2021 00:14 9,4 C 6,3 C 6,8 C 8,3 C 7,6 C 71 % 91 % 73 % 77 % 86 % 1015,4 hPa 0,0 l/m 7,1 km/h (2 Bft) SW 225 4,9 C 5,7 C 11,6 km/h (2 Bft)
20.04.2021 00:12 9,6 C 6,4 C 6,8 C 8,3 C 7,6 C 71 % 90 % 73 % 77 % 86 % 1015,4 hPa 0,0 l/m 7,4 km/h (2 Bft) W-SW 247 4,9 C 5,6 C 11,3 km/h (2 Bft)
20.04.2021 00:10 9,6 C 6,4 C 6,8 C 8,3 C 7,6 C 71 % 90 % 73 % 77 % 86 % 1015,4 hPa 0,0 l/m 7,6 km/h (2 Bft) W-SW 247 4,9 C 5,4 C 17,9 km/h (3 Bft)
20.04.2021 00:08 9,6 C 6,4 C 6,8 C 8,3 C 7,6 C 71 % 90 % 73 % 77 % 86 % 1015,4 hPa 0,0 l/m 7,6 km/h (2 Bft) W-SW 247 4,9 C 5,4 C 17,9 km/h (3 Bft)
20.04.2021 00:06 9,4 C 6,4 C 6,8 C 8,3 C 7,6 C 71 % 90 % 73 % 77 % 86 % 1015,4 hPa 0,0 l/m 7,6 km/h (2 Bft) W-SW 247 4,9 C 5,4 C 17,9 km/h (3 Bft)
20.04.2021 00:04 9,6 C 6,4 C 6,8 C 8,3 C 7,6 C 71 % 90 % 73 % 77 % 86 % 1015,4 hPa 0,0 l/m 7,6 km/h (2 Bft) W-SW 247 4,9 C 5,4 C 17,9 km/h (3 Bft)
20.04.2021 00:02 9,4 C 6,4 C 6,8 C 8,3 C 7,6 C 71 % 90 % 73 % 77 % 86 % 1015,4 hPa 0,0 l/m 7,6 km/h (2 Bft) W-SW 247 4,9 C 5,4 C 17,9 km/h (3 Bft)
20.04.2021 00:00 9,4 C 6,4 C 6,8 C 8,3 C 7,6 C 71 % 90 % 73 % 77 % 86 % 1015,6 hPa 0,0 l/m 7,1 km/h (2 Bft) S-SW 202 4,9 C 5,8 C 11,3 km/h (2 Bft)
_ Min-Zeit 02:40 03:36 00:00 00:00 03:32 17:50 17:24 00:00 00:00 00:00 06:02 - 07:08 - - 15:04 15:12 05:20
Minimum _ 8,8 C 5,8 C 6,8 C 8,3 C 7,2 C 63 % 61 % 73 % 77 % 86 % 1013,6 hPa - 0,2 km/h (0 Bft) - - 3,0 C 2,5 C 0,0 km/h (0 Bft)
_ Max-Zeit 17:24 16:50 17:12 15:26 17:20 02:16 05:46 07:26 02:34 13:06 14:02 15:20 15:10 - - 12:00 16:50 15:08
Maximum _ 13,6 C 13,4 C 7,5 C 8,7 C 10,1 C 73 % 96 % 74 % 78 % 89 % 1017,9 hPa 0,3 l/m 15,1 km/h
W (3 Bft)
- - 8,7 C 13,4 C 36,5 km/h
W-NW (5 Bft)
Durchschnitt _ 10,4 C 8,0 C 7,0 C 8,5 C 7,9 C 71 % 86 % 74 % 78 % 87 % 1015,4 hPa #3,0 l/m 5,2 km/h (1 Bft) W-SW - 5,6 C 7,7 C 9,6 km/h (2 Bft)